IZ1UQG-N2 Weather Reports


time (UTC)temp
C
wind
direction
speed
KPH
gust
KPH
rain 1hr
cm
rain 24hr
cm
rain mn
cm
humidity
%
barometer
mb
20260503055104 13 319 3.2 4.8 0.00 0.00 0.00 74 1018.1
20260503055002 13 320 3.2 4.8 0.00 0.00 0.00 74 1018.1
20260503054904 13 320 3.2 4.8 0.00 0.00 0.00 74 1018.2
20260503054803 13 322 3.2 4.8 0.00 0.00 0.00 74 1018.1
20260503054703 13 328 3.2 4.8 0.00 0.00 0.00 74 1018.1
20260503054604 13 328 3.2 4.8 0.00 0.00 0.00 74 1018.1
20260503054504 13 328 1.6 4.8 0.00 0.00 0.00 74 1018.2
20260503054402 13 329 1.6 3.2 0.00 0.00 0.00 74 1018.0
20260503054304 13 329 1.6 3.2 0.00 0.00 0.00 75 1018.1
20260503054203 13 327 1.6 3.2 0.00 0.00 0.00 75 1018.1
20260503054102 13 324 1.6 3.2 0.00 0.00 0.00 75 1018.1
20260503054004 13 322 1.6 3.2 0.00 0.00 0.00 75 1018.0
20260503053904 13 319 1.6 3.2 0.00 0.00 0.00 75 1018.1
20260503053803 13 317 1.6 3.2 0.00 0.00 0.00 75 1018.0
20260503053801 13 314 1.6 3.2 0.00 0.00 0.00 75 1018.0
20260503053705 13 312 1.6 4.8 0.00 0.00 0.00 75 1018.1
20260503053605 13 312 1.6 4.8 0.00 0.00 0.00 75 1018.1
20260503053502 13 316 1.6 4.8 0.00 0.00 0.00 75 1018.1
20260503053404 13 318 3.2 4.8 0.00 0.00 0.00 75 1018.1
20260503053304 13 318 3.2 4.8 0.00 0.00 0.00 75 1018.1
20260503053202 13 319 3.2 4.8 0.00 0.00 0.00 75 1018.1
20260503053103 12 321 3.2 4.8 0.00 0.00 0.00 75 1018.1
20260503053003 12 324 3.2 4.8 0.00 0.00 0.00 76 1018.2
20260503052903 12 324 3.2 6.4 0.00 0.00 0.00 75 1018.1
20260503052901 12 325 3.2 6.4 0.00 0.00 0.00 75 1018.1
20260503052803 12 325 3.2 6.4 0.00 0.00 0.00 75 1018.1
20260503052704 12 329 3.2 6.4 0.00 0.00 0.00 75 1018.1
20260503052602 12 329 3.2 6.4 0.00 0.00 0.00 75 1018.1
20260503052504 12 327 3.2 6.4 0.00 0.00 0.00 75 1018.1
20260503052404 12 327 3.2 6.4 0.00 0.00 0.00 75 1018.1
20260503052301 12 330 3.2 6.4 0.00 0.00 0.00 75 1018.1
20260503052203 12 331 3.2 6.4 0.00 0.00 0.00 75 1018.1
20260503052104 13 332 3.2 6.4 0.00 0.00 0.00 74 1018.1
20260503052002 13 331 1.6 6.4 0.00 0.00 0.00 74 1018.1
20260503051904 13 332 1.6 4.8 0.00 0.00 0.00 74 1018.1
20260503051803 13 330 1.6 4.8 0.00 0.00 0.00 74 1018.1
20260503051702 13 323 1.6 3.2 0.00 0.00 0.00 74 1018.0
20260503051604 13 323 1.6 3.2 0.00 0.00 0.00 74 1018.0
20260503051504 13 322 1.6 3.2 0.00 0.00 0.00 75 1018.0
20260503051402 13 319 1.6 3.2 0.00 0.00 0.00 75 1018.1
20260503051303 13 314 0.0 3.2 0.00 0.00 0.00 75 1018.0
20260503051203 13 310 0.0 3.2 0.00 0.00 0.00 75 1018.1
20260503051103 13 305 0.0 3.2 0.00 0.00 0.00 75 1018.0
20260503051005 12 304 0.0 3.2 0.00 0.00 0.00 75 1018.0
20260503050905 13 299 0.0 1.6 0.00 0.00 0.00 75 1018.0
20260503050802 13 299 0.0 1.6 0.00 0.00 0.00 75 1018.1
20260503050703 12 299 0.0 1.6 0.00 0.00 0.00 75 1018.0
20260503050603 12 299 0.0 1.6 0.00 0.00 0.00 75 1018.0
20260503050502 12 299 0.0 1.6 0.00 0.00 0.00 75 1018.1
20260503050404 12 299 0.0 1.6 0.00 0.00 0.00 75 1018.0
20260503050303 12 299 0.0 1.6 0.00 0.00 0.00 75 1018.1
20260503050203 12 299 0.0 1.6 0.00 0.00 0.00 75 1018.0
20260503050105 12 300 0.0 1.6 0.00 0.00 0.00 75 1018.1
20260503050005 12 302 0.0 1.6 0.00 0.00 0.00 76 1018.0
20260503045902 12 302 0.0 3.2 0.00 0.00 0.00 76 1018.1
20260503045804 12 303 0.0 4.8 0.00 0.00 0.00 76 1018.1
20260503045703 12 301 1.6 4.8 0.00 0.00 0.00 76 1018.1
20260503045601 12 301 1.6 4.8 0.00 0.00 0.00 76 1018.1
20260503045503 12 299 1.6 4.8 0.00 0.00 0.00 76 1018.2
20260503045403 12 296 1.6 4.8 0.00 0.00 0.00 76 1018.2
20260503045304 12 293 1.6 4.8 0.00 0.00 0.00 76 1018.1
20260503045204 12 288 1.6 4.8 0.00 0.00 0.00 77 1018.2
20260503045104 12 284 1.6 4.8 0.00 0.00 0.00 76 1018.1
20260503045002 12 277 3.2 4.8 0.00 0.00 0.00 76 1018.2
20260503044904 12 271 3.2 4.8 0.00 0.00 0.00 76 1018.1
20260503044803 12 266 3.2 4.8 0.00 0.00 0.00 77 1018.2
20260503044702 12 264 3.2 4.8 0.00 0.00 0.00 77 1018.2
20260503044603 12 264 3.2 4.8 0.00 0.00 0.00 77 1018.2
20260503044503 12 266 3.2 4.8 0.00 0.00 0.00 77 1018.2
20260503044403 12 267 3.2 4.8 0.00 0.00 0.00 77 1018.2
20260503044401 12 265 3.2 4.8 0.00 0.00 0.00 77 1018.2
20260503044305 12 265 3.2 4.8 0.00 0.00 0.00 77 1018.2
20260503044204 12 267 1.6 4.8 0.00 0.00 0.00 77 1018.2
20260503044103 12 270 1.6 4.8 0.00 0.00 0.00 77 1018.2
20260503044101 12 275 1.6 4.8 0.00 0.00 0.00 77 1018.1
20260503044003 12 275 1.6 4.8 0.00 0.00 0.00 77 1018.1
20260503043903 12 280 1.6 4.8 0.00 0.00 0.00 77 1018.1
20260503043802 12 284 1.6 4.8 0.00 0.00 0.00 77 1018.1
20260503043704 12 288 1.6 4.8 0.00 0.00 0.00 77 1018.1
20260503043603 12 288 1.6 4.8 0.00 0.00 0.00 77 1018.1
20260503043502 12 288 1.6 1.6 0.00 0.00 0.00 76 1018.0
20260503043404 12 286 1.6 1.6 0.00 0.00 0.00 76 1018.1
20260503043303 12 289 0.0 1.6 0.00 0.00 0.00 76 1018.0
20260503043202 12 289 0.0 1.6 0.00 0.00 0.00 76 1018.0
20260503043104 12 287 0.0 1.6 0.00 0.00 0.00 76 1018.0
20260503043004 12 288 0.0 1.6 0.00 0.00 0.00 76 1018.0
20260503042904 12 291 0.0 3.2 0.00 0.00 0.00 76 1018.1
20260503042902 12 289 1.6 3.2 0.00 0.00 0.00 76 1018.0
20260503042804 12 289 1.6 3.2 0.00 0.00 0.00 76 1018.0
20260503042704 12 289 1.6 3.2 0.00 0.00 0.00 76 1017.9
20260503042602 12 289 1.6 3.2 0.00 0.00 0.00 76 1017.9
20260503042504 12 292 1.6 3.2 0.00 0.00 0.00 76 1017.9
20260503042404 12 296 1.6 3.2 0.00 0.00 0.00 76 1017.9
20260503042305 12 301 1.6 3.2 0.00 0.00 0.00 76 1018.0
20260503042301 12 302 1.6 3.2 0.00 0.00 0.00 76 1018.0
20260503042205 12 302 1.6 3.2 0.00 0.00 0.00 76 1018.0
20260503042105 12 302 1.6 3.2 0.00 0.00 0.00 76 1018.0
20260503042002 12 302 1.6 3.2 0.00 0.00 0.00 76 1018.1
20260503041904 12 299 0.0 3.2 0.00 0.00 0.00 76 1018.0
20260503041803 12 302 0.0 3.2 0.00 0.00 0.00 77 1018.0
20260503041702 12 289 0.0 3.2 0.00 0.00 0.00 76 1018.1
20260503041604 12 289 0.0 3.2 0.00 0.00 0.00 76 1018.1
20260503041503 12 274 0.0 3.2 0.00 0.00 0.00 77 1018.0
20260503041403 12 259 0.0 3.2 0.00 0.00 0.00 77 1018.1
20260503041401 12 251 0.0 3.2 0.00 0.00 0.00 77 1018.0
20260503041304 12 251 0.0 3.2 0.00 0.00 0.00 77 1018.0
20260503041204 12 248 0.0 3.2 0.00 0.00 0.00 77 1018.1
20260503041101 12 250 1.6 4.8 0.00 0.00 0.00 77 1018.0
20260503041004 12 247 1.6 4.8 0.00 0.00 0.00 77 1018.1
20260503040903 12 244 1.6 4.8 0.00 0.00 0.00 77 1018.1
20260503040802 12 241 1.6 6.4 0.00 0.00 0.00 77 1018.1
20260503040704 12 242 3.2 6.4 0.00 0.00 0.00 78 1018.1
20260503040604 12 242 3.2 6.4 0.00 0.00 0.00 78 1018.1
20260503040501 12 243 3.2 6.4 0.00 0.00 0.00 78 1018.0
20260503040403 12 243 3.2 6.4 0.00 0.00 0.00 78 1018.2
20260503040303 12 244 3.2 6.4 0.00 0.00 0.00 78 1018.2
20260503040203 12 243 3.2 6.4 0.00 0.00 0.00 78 1018.1
20260503040104 12 239 3.2 6.4 0.00 0.00 0.00 78 1018.2
20260503040005 12 239 3.2 6.4 0.00 0.00 0.00 78 1018.2
20260503035902 12 241 3.2 6.4 0.00 0.00 0.00 78 1018.2
20260503035804 12 244 3.2 6.4 0.00 0.00 0.00 78 1018.2
20260503035704 12 241 3.2 6.4 0.00 0.00 0.00 78 1018.2
20260503035602 12 241 3.2 6.4 0.00 0.00 0.00 78 1018.2
20260503035504 12 240 3.2 6.4 0.00 0.00 0.00 77 1018.2
20260503035404 12 237 3.2 6.4 0.00 0.00 0.00 78 1018.2
20260503035304 12 235 3.2 6.4 0.00 0.00 0.00 78 1018.2
20260503035204 12 235 4.8 6.4 0.00 0.00 0.00 78 1018.2
20260503035103 12 236 3.2 6.4 0.00 0.00 0.00 78 1018.2
20260503035002 12 236 3.2 6.4 0.00 0.00 0.00 78 1018.1
20260503034904 12 236 3.2 6.4 0.00 0.00 0.00 77 1018.1
20260503034804 12 234 3.2 6.4 0.00 0.00 0.00 77 1018.1
20260503034701 12 233 1.6 6.4 0.00 0.00 0.00 77 1018.1
20260503034603 12 233 1.6 6.4 0.00 0.00 0.00 77 1018.1
20260503034503 12 234 1.6 6.4 0.00 0.00 0.00 77 1018.2
20260503034403 12 237 1.6 4.8 0.00 0.00 0.00 77 1018.1
20260503034401 12 239 1.6 3.2 0.00 0.00 0.00 77 1018.2
20260503034303 12 239 1.6 3.2 0.00 0.00 0.00 77 1018.2
20260503034203 12 241 1.6 3.2 0.00 0.00 0.00 77 1018.1
20260503034103 12 242 1.6 3.2 0.00 0.00 0.00 77 1018.2
20260503034101 12 244 1.6 3.2 0.00 0.00 0.00 77 1018.1
20260503034003 12 244 1.6 3.2 0.00 0.00 0.00 77 1018.1
20260503033903 12 243 1.6 3.2 0.00 0.00 0.00 77 1018.1
20260503033802 12 242 1.6 4.8 0.00 0.00 0.00 77 1018.1
20260503033704 12 243 1.6 4.8 0.00 0.00 0.00 77 1018.0
20260503033604 12 243 1.6 4.8 0.00 0.00 0.00 77 1018.0
20260503033504 12 242 1.6 4.8 0.00 0.00 0.00 77 1018.1
20260503033501 12 242 1.6 4.8 0.00 0.00 0.00 76 1018.1
20260503033403 12 242 1.6 4.8 0.00 0.00 0.00 76 1018.1
20260503033304 12 242 1.6 4.8 0.00 0.00 0.00 76 1018.1
20260503033202 12 242 1.6 4.8 0.00 0.00 0.00 77 1018.1
20260503033104 12 241 1.6 4.8 0.00 0.00 0.00 77 1018.1
20260503033004 12 240 1.6 4.8 0.00 0.00 0.00 76 1018.2
20260503032901 12 241 1.6 4.8 0.00 0.00 0.00 76 1018.2
20260503032803 12 242 1.6 4.8 0.00 0.00 0.00 76 1018.3
20260503032705 12 243 1.6 4.8 0.00 0.00 0.00 76 1018.3
20260503032602 12 243 1.6 4.8 0.00 0.00 0.00 76 1018.3
20260503032504 12 244 1.6 4.8 0.00 0.00 0.00 76 1018.1
20260503032404 12 246 1.6 4.8 0.00 0.00 0.00 76 1018.2
20260503032304 12 249 1.6 4.8 0.00 0.00 0.00 76 1018.1
20260503032204 12 250 1.6 4.8 0.00 0.00 0.00 76 1018.2
20260503032104 12 252 1.6 4.8 0.00 0.00 0.00 76 1018.2
20260503032001 12 255 1.6 3.2 0.00 0.00 0.00 75 1018.2
20260503031903 12 255 1.6 3.2 0.00 0.00 0.00 75 1018.2
20260503031804 12 259 1.6 3.2 0.00 0.00 0.00 75 1018.1
20260503031702 12 270 0.0 3.2 0.00 0.00 0.00 75 1018.2
20260503031604 12 270 0.0 3.2 0.00 0.00 0.00 75 1018.2
20260503031503 12 279 0.0 1.6 0.00 0.00 0.00 75 1018.2
20260503031403 12 284 0.0 1.6 0.00 0.00 0.00 76 1018.2
20260503031401 12 283 0.0 1.6 0.00 0.00 0.00 75 1018.2
20260503031304 12 283 0.0 1.6 0.00 0.00 0.00 75 1018.2
20260503031204 12 281 1.6 3.2 0.00 0.00 0.00 75 1018.2
20260503031104 12 276 1.6 3.2 0.00 0.00 0.00 75 1018.3
20260503031101 12 271 1.6 3.2 0.00 0.00 0.00 75 1018.2
20260503031003 12 271 1.6 3.2 0.00 0.00 0.00 75 1018.2
20260503030903 12 270 1.6 3.2 0.00 0.00 0.00 75 1018.2
20260503030803 12 269 1.6 3.2 0.00 0.00 0.00 75 1018.2
20260503030801 12 265 1.6 3.2 0.00 0.00 0.00 76 1018.2
20260503030705 12 262 1.6 3.2 0.00 0.00 0.00 76 1018.2
20260503030605 12 262 1.6 3.2 0.00 0.00 0.00 76 1018.2
20260503030504 12 256 1.6 3.2 0.00 0.00 0.00 76 1018.2
20260503030501 12 248 1.6 3.2 0.00 0.00 0.00 76 1018.3
20260503030404 12 248 1.6 3.2 0.00 0.00 0.00 76 1018.3
20260503030303 12 247 1.6 4.8 0.00 0.00 0.00 75 1018.2
20260503030202 12 245 1.6 4.8 0.00 0.00 0.00 75 1018.2
20260503030103 12 239 1.6 4.8 0.00 0.00 0.00 76 1018.1
20260503030004 12 232 1.6 6.4 0.00 0.00 0.00 76 1018.2
20260503025903 12 229 1.6 6.4 0.00 0.00 0.00 76 1018.1
20260503025901 12 230 1.6 9.7 0.00 0.00 0.00 75 1018.2
20260503025803 12 230 1.6 9.7 0.00 0.00 0.00 75 1018.2
20260503025705 12 234 3.2 9.7 0.00 0.00 0.00 75 1018.2
20260503025602 12 234 3.2 9.7 0.00 0.00 0.00 75 1018.2
20260503025504 12 237 3.2 9.7 0.00 0.00 0.00 75 1018.2
20260503025404 12 240 3.2 9.7 0.00 0.00 0.00 75 1018.2
20260503025305 12 243 3.2 9.7 0.00 0.00 0.00 75 1018.2
20260503025204 12 245 3.2 9.7 0.00 0.00 0.00 75 1018.2
20260503025104 12 251 3.2 9.7 0.00 0.00 0.00 75 1018.2
20260503025004 12 254 3.2 9.7 0.00 0.00 0.00 75 1018.2
20260503025001 12 252 3.2 9.7 0.00 0.00 0.00 75 1018.2
20260503024903 12 252 3.2 9.7 0.00 0.00 0.00 75 1018.2
20260503024803 12 249 3.2 9.7 0.00 0.00 0.00 76 1018.2
20260503024703 12 244 3.2 9.7 0.00 0.00 0.00 76 1018.2
20260503024605 12 244 3.2 9.7 0.00 0.00 0.00 76 1018.2
20260503024505 12 241 3.2 9.7 0.00 0.00 0.00 76 1018.2
20260503024402 12 239 3.2 9.7 0.00 0.00 0.00 76 1018.2
20260503024304 12 236 3.2 9.7 0.00 0.00 0.00 76 1018.3
20260503024203 12 234 3.2 9.7 0.00 0.00 0.00 76 1018.1
20260503024102 12 232 3.2 9.7 0.00 0.00 0.00 76 1018.3
20260503024004 12 233 3.2 9.7 0.00 0.00 0.00 76 1018.2
20260503023904 12 235 3.2 6.4 0.00 0.00 0.00 76 1018.3
20260503023804 12 237 3.2 6.4 0.00 0.00 0.00 76 1018.2
20260503023801 12 240 3.2 6.4 0.00 0.00 0.00 76 1018.2
20260503023703 12 241 3.2 6.4 0.00 0.00 0.00 76 1018.2
20260503023603 12 241 3.2 6.4 0.00 0.00 0.00 76 1018.2
20260503023501 12 239 3.2 6.4 0.00 0.00 0.00 76 1018.3
20260503023403 12 240 3.2 6.4 0.00 0.00 0.00 76 1018.2
20260503023304 12 238 3.2 6.4 0.00 0.00 0.00 76 1018.3
20260503023201 12 236 3.2 9.7 0.00 0.00 0.00 76 1018.3
20260503023103 12 233 3.2 9.7 0.00 0.00 0.00 76 1018.3
20260503023003 12 230 4.8 9.7 0.00 0.00 0.00 76 1018.3
20260503022902 12 230 4.8 9.7 0.00 0.00 0.00 76 1018.3
20260503022804 12 229 4.8 9.7 0.00 0.00 0.00 76 1018.3
20260503022704 12 228 4.8 9.7 0.00 0.00 0.00 76 1018.3
20260503022601 12 228 4.8 9.7 0.00 0.00 0.00 76 1018.3
20260503022503 12 227 4.8 9.7 0.00 0.00 0.00 76 1018.3
20260503022403 12 226 4.8 9.7 0.00 0.00 0.00 76 1018.3
20260503022301 12 225 4.8 9.7 0.00 0.00 0.00 76 1018.2
20260503022205 12 225 4.8 9.7 0.00 0.00 0.00 76 1018.2
20260503022105 12 226 4.8 9.7 0.00 0.00 0.00 76 1018.3
20260503022002 12 227 4.8 9.7 0.00 0.00 0.00 76 1018.3
20260503021904 12 227 6.4 9.7 0.00 0.00 0.00 76 1018.3
20260503021804 12 227 6.4 9.7 0.00 0.00 0.00 76 1018.4
20260503021701 12 226 6.4 9.7 0.00 0.00 0.00 76 1018.4
20260503021603 12 226 6.4 9.7 0.00 0.00 0.00 76 1018.4
20260503021503 12 227 6.4 9.7 0.00 0.00 0.00 76 1018.3
20260503021403 12 227 4.8 9.7 0.00 0.00 0.00 76 1018.4
20260503021303 12 228 4.8 9.7 0.00 0.00 0.00 76 1018.3
20260503021203 12 228 4.8 6.4 0.00 0.00 0.00 76 1018.4
20260503021102 12 228 4.8 6.4 0.00 0.00 0.00 76 1018.4
20260503021004 12 228 4.8 6.4 0.00 0.00 0.00 76 1018.4
20260503020904 12 228 3.2 6.4 0.00 0.00 0.00 76 1018.3
20260503020804 12 228 3.2 6.4 0.00 0.00 0.00 75 1018.4
20260503020801 12 228 3.2 4.8 0.00 0.00 0.00 75 1018.4
20260503020703 12 229 1.6 4.8 0.00 0.00 0.00 75 1018.4
20260503020603 12 229 1.6 4.8 0.00 0.00 0.00 75 1018.4
20260503020502 12 229 1.6 4.8 0.00 0.00 0.00 75 1018.4
20260503020404 12 229 1.6 4.8 0.00 0.00 0.00 75 1018.4
20260503020304 12 229 1.6 4.8 0.00 0.00 0.00 75 1018.4
20260503020202 12 231 1.6 4.8 0.00 0.00 0.00 75 1018.3
20260503020004 12 233 1.6 4.8 0.00 0.00 0.00 75 1018.3
20260503015903 12 233 1.6 4.8 0.00 0.00 0.00 75 1018.4
20260503015901 12 232 1.6 4.8 0.00 0.00 0.00 75 1018.4
20260503015804 12 232 1.6 4.8 0.00 0.00 0.00 75 1018.4
20260503015704 12 231 3.2 4.8 0.00 0.00 0.00 76 1018.3
20260503015602 12 231 3.2 4.8 0.00 0.00 0.00 76 1018.3
20260503015504 12 230 3.2 6.4 0.00 0.00 0.00 76 1018.4
20260503015404 12 229 3.2 6.4 0.00 0.00 0.00 76 1018.4
20260503015305 12 229 3.2 6.4 0.00 0.00 0.00 76 1018.4
20260503015301 12 229 3.2 6.4 0.00 0.00 0.00 76 1018.4
20260503015204 12 229 3.2 6.4 0.00 0.00 0.00 76 1018.4
20260503015104 12 229 3.2 6.4 0.00 0.00 0.00 76 1018.4
20260503015002 12 228 3.2 6.4 0.00 0.00 0.00 76 1018.4
20260503014904 12 228 3.2 6.4 0.00 0.00 0.00 76 1018.4
20260503014804 12 229 3.2 6.4 0.00 0.00 0.00 76 1018.5
20260503014703 12 230 3.2 6.4 0.00 0.00 0.00 75 1018.5
20260503014605 12 230 3.2 6.4 0.00 0.00 0.00 75 1018.5
20260503014505 12 232 3.2 6.4 0.00 0.00 0.00 75 1018.4
20260503014402 12 234 3.2 6.4 0.00 0.00 0.00 75 1018.5
20260503014305 12 236 3.2 6.4 0.00 0.00 0.00 75 1018.5
20260503014204 12 242 3.2 4.8 0.00 0.00 0.00 75 1018.5
20260503014102 12 242 1.6 4.8 0.00 0.00 0.00 75 1018.4
20260503014004 12 247 1.6 4.8 0.00 0.00 0.00 75 1018.5
20260503013904 12 248 1.6 4.8 0.00 0.00 0.00 74 1018.4
20260503013801 12 251 1.6 4.8 0.00 0.00 0.00 74 1018.5
20260503013705 12 261 1.6 4.8 0.00 0.00 0.00 74 1018.4
20260503013605 12 261 1.6 4.8 0.00 0.00 0.00 74 1018.4
20260503013501 13 270 1.6 4.8 0.00 0.00 0.00 74 1018.5
20260503013403 13 279 0.0 4.8 0.00 0.00 0.00 74 1018.6
20260503013303 13 289 0.0 1.6 0.00 0.00 0.00 74 1018.5
20260503013202 13 289 0.0 1.6 0.00 0.00 0.00 73 1018.4
20260503013104 13 289 0.0 1.6 0.00 0.00 0.00 73 1018.5
20260503013004 13 289 0.0 1.6 0.00 0.00 0.00 73 1018.4
20260503012901 13 289 0.0 1.6 0.00 0.00 0.00 73 1018.5
20260503012804 13 289 0.0 1.6 0.00 0.00 0.00 73 1018.5
20260503012704 13 289 0.0 1.6 0.00 0.00 0.00 73 1018.5
20260503012602 13 289 0.0 1.6 0.00 0.00 0.00 73 1018.5
20260503012504 13 289 0.0 1.6 0.00 0.00 0.00 73 1018.5
20260503012404 13 289 0.0 1.6 0.00 0.00 0.00 73 1018.5
20260503012305 13 290 0.0 1.6 0.00 0.00 0.00 72 1018.5
20260503012203 13 294 0.0 1.6 0.00 0.00 0.00 72 1018.5
20260503012103 13 297 0.0 1.6 0.00 0.00 0.00 72 1018.5
20260503012003 13 302 0.0 3.2 0.00 0.00 0.00 72 1018.4
20260503012001 13 309 0.0 3.2 0.00 0.00 0.00 72 1018.5
20260503011903 13 309 0.0 3.2 0.00 0.00 0.00 72 1018.5
20260503011804 13 320 0.0 4.8 0.00 0.00 0.00 72 1018.4
20260503011702 13 321 1.6 4.8 0.00 0.00 0.00 71 1018.5
20260503011604 13 321 1.6 4.8 0.00 0.00 0.00 71 1018.5
20260503011504 13 321 1.6 4.8 0.00 0.00 0.00 71 1018.5
20260503011404 13 322 0.0 4.8 0.00 0.00 0.00 71 1018.5
20260503011401 13 323 0.0 4.8 0.00 0.00 0.00 71 1018.4
20260503011303 13 323 0.0 4.8 0.00 0.00 0.00 71 1018.4
20260503011205 13 318 0.0 4.8 0.00 0.00 0.00 71 1018.5
20260503011101 13 303 1.6 4.8 0.00 0.00 0.00 71 1018.4
20260503011004 13 292 1.6 4.8 0.00 0.00 0.00 71 1018.5
20260503010903 13 279 1.6 4.8 0.00 0.00 0.00 71 1018.5
20260503010803 13 259 0.0 3.2 0.00 0.00 0.00 72 1018.5
20260503010801 13 252 0.0 3.2 0.00 0.00 0.00 72 1018.5
20260503010704 13 242 0.0 3.2 0.00 0.00 0.00 72 1018.5
20260503010604 13 242 0.0 3.2 0.00 0.00 0.00 72 1018.5
20260503010502 13 242 0.0 3.2 0.00 0.00 0.00 72 1018.5
20260503010404 13 243 1.6 3.2 0.00 0.00 0.00 72 1018.5
20260503010304 13 246 1.6 3.2 0.00 0.00 0.00 72 1018.6
20260503010202 13 247 1.6 4.8 0.00 0.00 0.00 72 1018.5
20260503010104 13 250 1.6 4.8 0.00 0.00 0.00 72 1018.6
20260503010004 13 254 1.6 4.8 0.00 0.00 0.00 72 1018.6
20260503005904 13 258 1.6 4.8 0.00 0.00 0.00 72 1018.7
20260503005901 13 260 1.6 4.8 0.00 0.00 0.00 72 1018.6
20260503005803 13 260 1.6 4.8 0.00 0.00 0.00 72 1018.6
20260503005703 13 260 1.6 4.8 0.00 0.00 0.00 72 1018.5
20260503005603 13 260 1.6 4.8 0.00 0.00 0.00 72 1018.5
20260503005505 13 259 1.6 4.8 0.00 0.00 0.00 72 1018.6
20260503005405 13 258 1.6 4.8 0.00 0.00 0.00 72 1018.7
20260503005304 13 258 1.6 4.8 0.00 0.00 0.00 72 1018.6
20260503005204 13 258 1.6 3.2 0.00 0.00 0.00 72 1018.5
20260503005103 13 256 1.6 3.2 0.00 0.00 0.00 72 1018.6
20260503005003 13 250 1.6 3.2 0.00 0.00 0.00 72 1018.7
20260503005001 13 246 1.6 3.2 0.00 0.00 0.00 72 1018.7
20260503004903 13 246 1.6 3.2 0.00 0.00 0.00 72 1018.7
20260503004805 13 241 0.0 3.2 0.00 0.00 0.00 71 1018.6
20260503004702 13 227 0.0 3.2 0.00 0.00 0.00 71 1018.8
20260503004604 13 227 0.0 3.2 0.00 0.00 0.00 71 1018.8
20260503004504 13 225 0.0 1.6 0.00 0.00 0.00 71 1018.8
20260503004404 13 225 0.0 1.6 0.00 0.00 0.00 71 1018.7
20260503004401 13 224 0.0 3.2 0.00 0.00 0.00 71 1018.6
20260503004303 13 224 0.0 3.2 0.00 0.00 0.00 71 1018.6
20260503004205 13 223 1.6 4.8 0.00 0.00 0.00 71 1018.8
20260503004101 13 223 1.6 4.8 0.00 0.00 0.00 71 1018.8
20260503004003 13 222 1.6 4.8 0.00 0.00 0.00 72 1018.8
20260503003903 13 222 1.6 4.8 0.00 0.00 0.00 72 1018.7
20260503003802 13 221 1.6 4.8 0.00 0.00 0.00 72 1018.8
20260503003704 13 221 3.2 4.8 0.00 0.00 0.00 72 1018.8
20260503003604 13 221 3.2 4.8 0.00 0.00 0.00 72 1018.8
20260503003501 13 221 3.2 4.8 0.00 0.00 0.00 72 1018.8
20260503003403 13 221 3.2 4.8 0.00 0.00 0.00 72 1018.8
20260503003303 13 221 3.2 4.8 0.00 0.00 0.00 72 1018.9
20260503003202 13 221 3.2 4.8 0.00 0.00 0.00 72 1018.9
20260503003104 13 221 3.2 4.8 0.00 0.00 0.00 72 1019.0
20260503003004 13 221 1.6 4.8 0.00 0.00 0.00 72 1018.9
20260503002901 13 221 1.6 3.2 0.00 0.00 0.00 72 1018.9
20260503002804 13 221 1.6 3.2 0.00 0.00 0.00 72 1018.9
20260503002703 13 221 1.6 3.2 0.00 0.00 0.00 72 1018.9
20260503002603 13 221 1.6 3.2 0.00 0.00 0.00 72 1018.9
20260503002505 13 220 1.6 3.2 0.00 0.00 0.00 71 1019.0
20260503002405 13 220 0.0 3.2 0.00 0.00 0.00 71 1019.0
20260503002305 13 220 0.0 1.6 0.00 0.00 0.00 71 1019.1
20260503002301 13 220 0.0 3.2 0.00 0.00 0.00 71 1019.0
20260503002205 13 220 0.0 3.2 0.00 0.00 0.00 71 1019.0
20260503002105 13 218 1.6 3.2 0.00 0.00 0.00 71 1019.0
20260503002001 13 218 1.6 3.2 0.00 0.00 0.00 71 1019.0
20260503001903 13 216 1.6 3.2 0.00 0.00 0.00 71 1019.1
20260503001803 13 213 1.6 3.2 0.00 0.00 0.00 71 1019.0
20260503001702 13 219 1.6 4.8 0.00 0.00 0.00 71 1019.0
20260503001604 13 219 1.6 4.8 0.00 0.00 0.00 71 1019.0
20260503001504 13 220 1.6 4.8 0.00 0.00 0.00 71 1019.1
20260503001402 13 221 1.6 4.8 0.00 0.00 0.00 70 1019.0
20260503001303 13 225 1.6 4.8 0.00 0.00 0.00 70 1019.0
20260503001205 13 232 1.6 4.8 0.00 0.00 0.00 70 1019.1
20260503001101 13 240 1.6 4.8 0.00 0.00 0.00 70 1019.1
20260503001003 13 241 1.6 4.8 0.00 0.00 0.00 70 1019.1
20260503000903 13 244 1.6 4.8 0.00 0.00 0.00 70 1019.0
20260503000803 13 248 1.6 4.8 0.00 0.00 0.00 69 1019.1
20260503000704 14 253 1.6 3.2 0.00 0.00 0.00 69 1019.1
20260503000604 14 253 1.6 3.2 0.00 0.00 0.00 69 1019.1
20260503000501 14 255 1.6 3.2 0.00 0.00 0.00 69 1019.0
20260503000403 14 261 1.6 3.2 0.00 0.00 0.00 69 1019.1
20260503000304 14 261 1.6 3.2 0.00 0.00 0.00 69 1019.1
20260503000204 14 255 1.6 3.2 0.00 0.00 0.00 69 1019.0
20260503000105 14 253 1.6 3.2 0.00 0.00 0.00 69 1019.2
20260503000005 14 255 1.6 3.2 0.00 0.00 0.00 69 1019.1
20260502235902 14 258 1.6 3.2 0.00 0.00 0.00 69 1019.1
20260502235803 14 258 1.6 3.2 0.00 0.00 0.00 69 1019.2
20260502235703 14 263 1.6 3.2 0.00 0.00 0.00 69 1019.1
20260502235603 14 263 1.6 3.2 0.00 0.00 0.00 69 1019.1
20260502235601 14 263 1.6 4.8 0.00 0.00 0.00 69 1019.0
20260502235503 14 263 1.6 4.8 0.00 0.00 0.00 69 1019.0
20260502235405 14 267 1.6 4.8 0.00 0.00 0.00 69 1019.1
20260502235305 14 270 1.6 4.8 0.00 0.00 0.00 69 1019.1
20260502235301 14 268 1.6 4.8 0.00 0.00 0.00 69 1019.1
20260502235205 14 268 1.6 4.8 0.00 0.00 0.00 69 1019.1
20260502235105 14 261 1.6 4.8 0.00 0.00 0.00 69 1019.1
20260502235002 14 254 1.6 6.4 0.00 0.00 0.00 69 1019.2
20260502234904 14 247 3.2 6.4 0.00 0.00 0.00 69 1019.1
20260502234804 14 244 3.2 6.4 0.00 0.00 0.00 69 1019.1
20260502234702 14 238 3.2 6.4 0.00 0.00 0.00 69 1019.2
20260502234604 14 238 3.2 6.4 0.00 0.00 0.00 69 1019.2
20260502234504 14 237 4.8 6.4 0.00 0.00 0.00 69 1019.0
20260502234401 14 234 3.2 6.4 0.00 0.00 0.00 69 1019.1
20260502234303 14 232 4.8 6.4 0.00 0.00 0.00 69 1019.1
20260502234205 14 231 4.8 6.4 0.00 0.00 0.00 69 1019.2
20260502234102 14 232 4.8 6.4 0.00 0.00 0.00 69 1019.1
20260502234004 14 233 4.8 6.4 0.00 0.00 0.00 69 1019.2
20260502233904 14 234 3.2 6.4 0.00 0.00 0.00 69 1019.1
20260502233802 14 234 3.2 4.8 0.00 0.00 0.00 68 1019.2
20260502233703 14 232 3.2 6.4 0.00 0.00 0.00 69 1019.2
20260502233603 14 232 3.2 6.4 0.00 0.00 0.00 69 1019.2
20260502233503 14 230 3.2 6.4 0.00 0.00 0.00 69 1019.2
20260502233405 14 228 3.2 6.4 0.00 0.00 0.00 68 1019.2
20260502233304 14 228 4.8 6.4 0.00 0.00 0.00 68 1019.2
20260502233201 14 227 4.8 6.4 0.00 0.00 0.00 68 1019.2
20260502233103 14 225 4.8 6.4 0.00 0.00 0.00 68 1019.2
20260502233003 14 223 4.8 6.4 0.00 0.00 0.00 68 1019.2
20260502232903 14 221 4.8 6.4 0.00 0.00 0.00 68 1019.2
20260502232804 14 220 4.8 6.4 0.00 0.00 0.00 68 1019.2
20260502232703 14 221 4.8 6.4 0.00 0.00 0.00 68 1019.2
20260502232603 14 221 4.8 6.4 0.00 0.00 0.00 68 1019.2
20260502232505 14 221 4.8 6.4 0.00 0.00 0.00 68 1019.3
20260502232405 14 222 4.8 6.4 0.00 0.00 0.00 68 1019.2
20260502232304 14 222 4.8 6.4 0.00 0.00 0.00 68 1019.2
20260502232204 14 222 4.8 6.4 0.00 0.00 0.00 68 1019.2
20260502232104 14 223 6.4 6.4 0.00 0.00 0.00 68 1019.3
20260502232001 14 224 6.4 6.4 0.00 0.00 0.00 68 1019.2
20260502231904 14 224 6.4 6.4 0.00 0.00 0.00 68 1019.3
20260502231803 14 225 6.4 6.4 0.00 0.00 0.00 68 1019.3
20260502231702 14 228 4.8 6.4 0.00 0.00 0.00 68 1019.2
20260502231604 14 228 4.8 6.4 0.00 0.00 0.00 68 1019.2
20260502231504 14 228 4.8 6.4 0.00 0.00 0.00 68 1019.1
20260502231401 14 228 4.8 6.4 0.00 0.00 0.00 69 1019.2
20260502231303 14 228 4.8 6.4 0.00 0.00 0.00 69 1019.2
20260502231204 14 229 4.8 6.4 0.00 0.00 0.00 69 1019.1
20260502231102 14 228 4.8 6.4 0.00 0.00 0.00 69 1019.2
20260502231004 14 228 4.8 6.4 0.00 0.00 0.00 69 1019.2
20260502230904 14 228 4.8 6.4 0.00 0.00 0.00 69 1019.2
20260502230803 14 229 4.8 6.4 0.00 0.00 0.00 69 1019.2
20260502230704 14 230 4.8 6.4 0.00 0.00 0.00 69 1019.2
20260502230604 14 230 4.8 6.4 0.00 0.00 0.00 69 1019.2
20260502230502 14 231 4.8 6.4 0.00 0.00 0.00 69 1019.2
20260502230404 14 233 4.8 6.4 0.00 0.00 0.00 69 1019.1
20260502230304 14 235 3.2 6.4 0.00 0.00 0.00 69 1019.2
20260502230202 14 239 3.2 6.4 0.00 0.00 0.00 69 1019.2
20260502230104 14 241 3.2 9.7 0.00 0.00 0.00 69 1019.2
20260502230004 14 243 3.2 9.7 0.00 0.00 0.00 69 1019.2
20260502225902 14 246 3.2 9.7 0.00 0.00 0.00 69 1019.2
20260502225804 14 244 3.2 9.7 0.00 0.00 0.00 69 1019.2
20260502225703 14 240 4.8 9.7 0.00 0.00 0.00 68 1019.2
20260502225603 14 240 4.8 9.7 0.00 0.00 0.00 68 1019.2
20260502225601 14 237 4.8 11.3 0.00 0.00 0.00 68 1019.2
20260502225503 14 237 4.8 11.3 0.00 0.00 0.00 68 1019.2
20260502225405 14 235 4.8 11.3 0.00 0.00 0.00 68 1019.2
20260502225304 14 233 4.8 11.3 0.00 0.00 0.00 68 1019.2
20260502225204 14 232 6.4 11.3 0.00 0.00 0.00 68 1019.1
20260502225104 14 231 4.8 11.3 0.00 0.00 0.00 68 1019.2
20260502225004 14 232 4.8 11.3 0.00 0.00 0.00 68 1019.1
20260502225001 14 232 4.8 11.3 0.00 0.00 0.00 68 1019.2
20260502224903 14 232 4.8 11.3 0.00 0.00 0.00 68 1019.2
20260502224803 14 233 4.8 11.3 0.00 0.00 0.00 68 1019.1
20260502224702 14 229 4.8 11.3 0.00 0.00 0.00 68 1019.2
20260502224604 14 229 4.8 11.3 0.00 0.00 0.00 68 1019.2
20260502224504 14 228 4.8 11.3 0.00 0.00 0.00 68 1019.1
20260502224402 14 228 4.8 11.3 0.00 0.00 0.00 68 1019.1
20260502224303 14 227 4.8 11.3 0.00 0.00 0.00 68 1019.1
20260502224203 14 226 4.8 11.3 0.00 0.00 0.00 68 1019.2
20260502224101 14 227 6.4 12.9 0.00 0.00 0.00 68 1019.1
20260502224003 14 226 6.4 12.9 0.00 0.00 0.00 68 1019.2
20260502223903 14 225 6.4 12.9 0.00 0.00 0.00 68 1019.1
20260502223803 14 224 6.4 12.9 0.00 0.00 0.00 68 1019.2
20260502223801 14 226 6.4 12.9 0.00 0.00 0.00 68 1019.2
20260502223705 14 229 6.4 12.9 0.00 0.00 0.00 68 1019.2
20260502223604 14 229 6.4 12.9 0.00 0.00 0.00 68 1019.2
20260502223502 14 232 6.4 16.1 0.00 0.00 0.00 68 1019.2
20260502223404 14 231 6.4 16.1 0.00 0.00 0.00 68 1019.2
20260502223305 14 231 8.0 16.1 0.00 0.00 0.00 68 1019.1
20260502223202 14 232 8.0 16.1 0.00 0.00 0.00 68 1019.2
20260502223103 14 231 8.0 16.1 0.00 0.00 0.00 68 1019.2
20260502223003 14 231 8.0 16.1 0.00 0.00 0.00 67 1019.1
20260502222902 14 232 6.4 16.1 0.00 0.00 0.00 67 1019.1
20260502222804 14 233 6.4 16.1 0.00 0.00 0.00 67 1019.1
20260502222704 15 233 6.4 16.1 0.00 0.00 0.00 67 1019.1
20260502222602 15 233 6.4 16.1 0.00 0.00 0.00 67 1019.2
20260502222504 15 232 6.4 16.1 0.00 0.00 0.00 67 1019.2
20260502222404 15 238 4.8 12.9 0.00 0.00 0.00 67 1019.1
20260502222305 15 238 4.8 12.9 0.00 0.00 0.00 67 1019.1
20260502222204 15 239 4.8 11.3 0.00 0.00 0.00 67 1019.1
20260502222104 15 240 4.8 11.3 0.00 0.00 0.00 67 1019.1
20260502222001 15 241 4.8 11.3 0.00 0.00 0.00 67 1019.1
20260502221903 15 243 4.8 11.3 0.00 0.00 0.00 67 1019.1
20260502221803 15 244 4.8 11.3 0.00 0.00 0.00 67 1019.1
20260502221702 15 246 4.8 11.3 0.00 0.00 0.00 67 1019.2
20260502221604 15 247 4.8 11.3 0.00 0.00 0.00 67 1019.1
20260502221515 15 270 1.6 6.4 0.00 0.00 0.00 66 1019.1
20260502221504 15 248 4.8 11.3 0.00 0.00 0.00 67 1019.1
20260502221415 15 276 1.6 4.8 0.00 0.00 0.00 65 1019.1
20260502221402 15 259 3.2 11.3 0.00 0.00 0.00 66 1019.1
20260502221303 15 259 3.2 11.3 0.00 0.00 0.00 66 1019.1
20260502221203 15 263 3.2 11.3 0.00 0.00 0.00 66 1019.1
20260502221102 15 270 1.6 6.4 0.00 0.00 0.00 66 1019.1
20260502221004 15 276 1.6 4.8 0.00 0.00 0.00 65 1019.1
20260502220904 15 282 1.6 4.8 0.00 0.00 0.00 65 1019.1
20260502220803 15 273 1.6 6.4 0.00 0.00 0.00 65 1019.1
20260502220801 15 258 1.6 6.4 0.00 0.00 0.00 65 1019.1
20260502220704 15 258 1.6 6.4 0.00 0.00 0.00 65 1019.1
20260502220604 15 243 3.2 11.3 0.00 0.00 0.00 65 1019.1
20260502220502 15 236 3.2 11.3 0.00 0.00 0.00 65 1019.2
20260502220404 15 224 4.8 11.3 0.00 0.00 0.00 64 1019.1
20260502220304 15 224 4.8 11.3 0.00 0.00 0.00 64 1019.1
20260502220201 15 222 4.8 11.3 0.00 0.00 0.00 64 1019.1
20260502220003 15 221 6.4 11.3 0.00 0.00 0.00 64 1019.0
20260502215902 15 219 8.0 11.3 0.00 0.00 0.00 64 1019.1
20260502215804 15 220 8.0 11.3 0.00 0.00 0.00 64 1019.1
20260502215704 15 222 8.0 11.3 0.00 0.00 0.00 64 1019.1
20260502215602 15 224 8.0 11.3 0.00 0.00 0.00 64 1019.1
20260502215504 15 225 8.0 11.3 0.00 0.00 0.00 64 1019.1
20260502215404 15 229 6.4 11.3 0.00 0.00 0.00 64 1019.1
20260502215304 15 229 6.4 11.3 0.00 0.00 0.00 64 1019.1
20260502215204 15 233 6.4 11.3 0.00 0.00 0.00 64 1019.1
20260502215103 15 234 6.4 11.3 0.00 0.00 0.00 64 1019.2
20260502215003 15 238 4.8 11.3 0.00 0.00 0.00 64 1019.3
20260502214905 15 243 4.8 11.3 0.00 0.00 0.00 64 1019.2
20260502214805 15 246 4.8 9.7 0.00 0.00 0.00 64 1019.3
20260502214702 15 248 4.8 9.7 0.00 0.00 0.00 64 1019.1
20260502214604 15 249 3.2 6.4 0.00 0.00 0.00 64 1019.2
20260502214504 15 250 3.2 6.4 0.00 0.00 0.00 63 1019.2
20260502214401 15 253 3.2 6.4 0.00 0.00 0.00 63 1019.2
20260502214303 15 253 3.2 6.4 0.00 0.00 0.00 63 1019.2
20260502214203 16 254 3.2 6.4 0.00 0.00 0.00 63 1019.1
20260502214102 16 255 3.2 6.4 0.00 0.00 0.00 63 1019.1
20260502214016 15 259 1.6 4.8 0.00 0.00 0.00 63 1019.2
20260502214004 16 256 3.2 6.4 0.00 0.00 0.00 63 1019.1
20260502213904 16 256 3.2 6.4 0.00 0.00 0.00 63 1019.2
20260502213816 16 269 1.6 3.2 0.00 0.00 0.00 64 1019.1
20260502213803 16 256 3.2 6.4 0.00 0.00 0.00 63 1019.2
20260502213801 16 258 1.6 4.8 0.00 0.00 0.00 63 1019.2
20260502213705 16 258 1.6 4.8 0.00 0.00 0.00 63 1019.2
20260502213616 16 270 0.0 3.2 0.00 0.00 0.00 64 1019.1
20260502213605 15 259 1.6 4.8 0.00 0.00 0.00 63 1019.2
20260502213516 16 273 0.0 3.2 0.00 0.00 0.00 64 1019.2
20260502213502 16 262 1.6 4.8 0.00 0.00 0.00 63 1019.1
20260502213416 16 275 0.0 3.2 0.00 0.00 0.00 64 1019.2
20260502213404 16 269 1.6 3.2 0.00 0.00 0.00 64 1019.1
20260502213303 16 269 1.6 3.2 0.00 0.00 0.00 64 1019.1
20260502213215 16 288 0.0 3.2 0.00 0.00 0.00 64 1019.1
20260502213202 16 270 0.0 3.2 0.00 0.00 0.00 64 1019.1
20260502213104 16 273 0.0 3.2 0.00 0.00 0.00 64 1019.2
20260502213004 16 275 0.0 3.2 0.00 0.00 0.00 64 1019.2
20260502212902 16 282 0.0 3.2 0.00 0.00 0.00 64 1019.2
20260502212804 16 288 0.0 3.2 0.00 0.00 0.00 64 1019.1
20260502212703 16 293 0.0 3.2 0.00 0.00 0.00 64 1019.1
20260502212601 16 294 0.0 3.2 0.00 0.00 0.00 64 1019.0
20260502212503 16 295 0.0 3.2 0.00 0.00 0.00 64 1019.1
20260502212403 16 294 1.6 3.2 0.00 0.00 0.00 63 1019.1
20260502212304 16 294 1.6 3.2 0.00 0.00 0.00 63 1019.1
20260502212204 16 293 1.6 3.2 0.00 0.00 0.00 63 1019.1
20260502212104 16 292 1.6 3.2 0.00 0.00 0.00 63 1019.1
20260502212002 16 292 1.6 3.2 0.00 0.00 0.00 63 1019.1
20260502211904 16 292 1.6 3.2 0.00 0.00 0.00 63 1019.2
20260502211803 16 293 1.6 3.2 0.00 0.00 0.00 63 1019.1
20260502211704 16 296 1.6 4.8 0.00 0.00 0.00 63 1019.1
20260502211701 16 299 1.6 4.8 0.00 0.00 0.00 63 1019.1
20260502211603 16 299 1.6 4.8 0.00 0.00 0.00 63 1019.1
20260502211513 16 312 3.2 4.8 0.00 0.00 0.00 63 1019.1
20260502211503 16 304 1.6 4.8 0.00 0.00 0.00 63 1019.1
20260502211401 16 306 3.2 4.8 0.00 0.00 0.00 63 1019.1
20260502211303 16 306 3.2 4.8 0.00 0.00 0.00 63 1019.1
20260502211204 16 310 3.2 4.8 0.00 0.00 0.00 63 1019.1
20260502211102 16 312 3.2 4.8 0.00 0.00 0.00 63 1019.1
20260502211004 16 310 3.2 4.8 0.00 0.00 0.00 63 1019.1
20260502210904 16 305 3.2 6.4 0.00 0.00 0.00 63 1019.1
20260502210803 16 302 3.2 6.4 0.00 0.00 0.00 63 1019.1
20260502210801 16 297 3.2 6.4 0.00 0.00 0.00 63 1019.2
20260502210703 16 297 3.2 6.4 0.00 0.00 0.00 63 1019.2
20260502210603 16 292 3.2 6.4 0.00 0.00 0.00 63 1019.2
20260502210502 16 283 3.2 6.4 0.00 0.00 0.00 63 1019.1
20260502210404 16 270 3.2 6.4 0.00 0.00 0.00 63 1019.1
20260502210304 16 270 3.2 6.4 0.00 0.00 0.00 63 1019.1
20260502210201 16 261 3.2 9.7 0.00 0.00 0.00 62 1019.1
20260502210112 16 231 4.8 9.7 0.00 0.00 0.00 62 1019.1
20260502210103 16 252 3.2 9.7 0.00 0.00 0.00 62 1019.2
20260502210004 16 246 4.8 9.7 0.00 0.00 0.00 62 1019.0
20260502205901 16 242 3.2 9.7 0.00 0.00 0.00 62 1019.1
20260502205803 16 237 4.8 9.7 0.00 0.00 0.00 62 1019.2
20260502205703 16 231 4.8 9.7 0.00 0.00 0.00 62 1019.1
20260502205611 16 216 4.8 9.7 0.00 0.00 0.00 61 1019.1
20260502205602 16 227 4.8 9.7 0.00 0.00 0.00 61 1019.2
20260502205504 16 224 4.8 9.7 0.00 0.00 0.00 61 1019.1
20260502205411 16 208 4.8 12.9 0.00 0.00 0.00 60 1019.2
20260502205404 16 218 4.8 9.7 0.00 0.00 0.00 61 1019.1
20260502205316 16 204 6.4 12.9 0.00 0.00 0.00 60 1019.2
20260502205305 16 218 4.8 9.7 0.00 0.00 0.00 61 1019.1
20260502205301 16 216 4.8 9.7 0.00 0.00 0.00 61 1019.1
20260502205203 16 216 4.8 9.7 0.00 0.00 0.00 61 1019.1
20260502205111 16 201 6.4 12.9 0.00 0.00 0.00 60 1019.2
20260502205103 16 211 4.8 9.7 0.00 0.00 0.00 60 1019.1
20260502205015 16 199 6.4 12.9 0.00 0.00 0.00 59 1019.1
20260502205002 16 208 4.8 12.9 0.00 0.00 0.00 60 1019.2
20260502204915 16 197 6.4 12.9 0.00 0.00 0.00 59 1019.1
20260502204904 16 204 6.4 12.9 0.00 0.00 0.00 60 1019.2
20260502204803 16 202 6.4 12.9 0.00 0.00 0.00 60 1019.1
20260502204702 16 201 6.4 12.9 0.00 0.00 0.00 60 1019.2
20260502204604 16 199 6.4 12.9 0.00 0.00 0.00 59 1019.1
20260502204504 16 197 6.4 12.9 0.00 0.00 0.00 59 1019.1
20260502204416 16 195 8.0 12.9 0.00 0.00 0.00 60 1019.1
20260502204402 16 195 8.0 12.9 0.00 0.00 0.00 59 1019.1
20260502204304 16 195 8.0 12.9 0.00 0.00 0.00 59 1019.1
20260502204205 16 194 8.0 12.9 0.00 0.00 0.00 59 1019.2
20260502204114 16 198 8.0 12.9 0.00 0.00 0.00 60 1019.2
20260502204102 16 194 8.0 12.9 0.00 0.00 0.00 60 1019.1
20260502204014 16 199 8.0 12.9 0.00 0.00 0.00 60 1019.1
20260502204004 16 195 8.0 12.9 0.00 0.00 0.00 60 1019.1
20260502203904 16 196 8.0 12.9 0.00 0.00 0.00 60 1019.1
20260502203803 16 197 8.0 12.9 0.00 0.00 0.00 60 1019.2
20260502203801 16 198 8.0 12.9 0.00 0.00 0.00 60 1019.2
20260502203705 16 198 8.0 12.9 0.00 0.00 0.00 60 1019.2
20260502203605 16 199 8.0 12.9 0.00 0.00 0.00 60 1019.1
20260502203502 16 200 8.0 12.9 0.00 0.00 0.00 60 1019.0
20260502203404 16 203 8.0 12.9 0.00 0.00 0.00 60 1019.2
20260502203314 16 208 6.4 12.9 0.00 0.00 0.00 61 1019.1
20260502203304 16 203 8.0 12.9 0.00 0.00 0.00 60 1019.2
20260502203201 16 204 8.0 12.9 0.00 0.00 0.00 60 1019.2
20260502203104 16 206 8.0 12.9 0.00 0.00 0.00 60 1019.2
20260502203004 16 207 8.0 12.9 0.00 0.00 0.00 61 1019.1
20260502202902 16 208 6.4 12.9 0.00 0.00 0.00 61 1019.1
20260502202804 16 209 6.4 12.9 0.00 0.00 0.00 61 1019.1
20260502202703 16 210 6.4 12.9 0.00 0.00 0.00 61 1019.1
20260502202603 16 210 6.4 12.9 0.00 0.00 0.00 61 1019.1
20260502202601 16 211 6.4 12.9 0.00 0.00 0.00 61 1019.1
20260502202503 16 211 6.4 12.9 0.00 0.00 0.00 61 1019.1
20260502202403 16 210 6.4 12.9 0.00 0.00 0.00 62 1019.1
20260502202305 16 210 6.4 12.9 0.00 0.00 0.00 62 1019.1
20260502202301 16 209 6.4 12.9 0.00 0.00 0.00 62 1019.1
20260502202207 16 203 6.4 12.9 0.00 0.00 0.00 61 1019.2
20260502202204 16 209 6.4 12.9 0.00 0.00 0.00 62 1019.1
20260502202104 16 207 6.4 12.9 0.00 0.00 0.00 61 1019.2
20260502202002 16 205 6.4 12.9 0.00 0.00 0.00 61 1019.1
20260502201904 16 204 6.4 12.9 0.00 0.00 0.00 61 1019.2
20260502201803 16 203 6.4 12.9 0.00 0.00 0.00 61 1019.2
20260502201716 16 194 6.4 12.9 0.00 0.00 0.00 60 1019.0
20260502201702 16 201 6.4 12.9 0.00 0.00 0.00 60 1019.1
20260502201604 16 199 6.4 12.9 0.00 0.00 0.00 60 1019.1
20260502201503 16 197 6.4 12.9 0.00 0.00 0.00 60 1019.1
20260502201403 16 194 6.4 12.9 0.00 0.00 0.00 60 1019.0
20260502201304 16 194 6.4 12.9 0.00 0.00 0.00 60 1019.0
20260502201301 16 194 6.4 12.9 0.00 0.00 0.00 60 1019.0
20260502201204 16 192 6.4 12.9 0.00 0.00 0.00 60 1019.0
20260502201101 16 192 6.4 12.9 0.00 0.00 0.00 60 1019.2
20260502201015 16 199 6.4 12.9 0.00 0.00 0.00 60 1018.9
20260502201003 16 192 6.4 12.9 0.00 0.00 0.00 60 1019.0
20260502200903 16 194 6.4 12.9 0.00 0.00 0.00 60 1019.0
20260502200802 16 195 6.4 12.9 0.00 0.00 0.00 60 1019.0
20260502200715 17 208 6.4 12.9 0.00 0.00 0.00 59 1018.9
20260502200704 16 196 6.4 12.9 0.00 0.00 0.00 60 1019.0
20260502200615 17 209 6.4 12.9 0.00 0.00 0.00 59 1018.9
20260502200604 16 199 6.4 12.9 0.00 0.00 0.00 60 1018.9
20260502200515 17 210 6.4 12.9 0.00 0.00 0.00 59 1018.9
20260502200503 16 203 6.4 12.9 0.00 0.00 0.00 60 1018.9
20260502200501 17 205 6.4 12.9 0.00 0.00 0.00 60 1018.9
20260502200403 17 208 6.4 12.9 0.00 0.00 0.00 59 1018.9
20260502200304 17 208 6.4 12.9 0.00 0.00 0.00 59 1018.9
20260502200215 17 210 6.4 14.5 0.00 0.00 0.00 59 1018.9
20260502200204 17 209 6.4 12.9 0.00 0.00 0.00 59 1018.9
20260502200201 17 210 6.4 12.9 0.00 0.00 0.00 59 1018.9
20260502200104 17 210 6.4 12.9 0.00 0.00 0.00 59 1018.9
20260502200004 17 211 6.4 12.9 0.00 0.00 0.00 59 1018.9
20260502195914 17 209 8.0 14.5 0.00 0.00 0.00 59 1018.8
20260502195902 17 211 6.4 12.9 0.00 0.00 0.00 59 1018.9
20260502195804 17 210 6.4 14.5 0.00 0.00 0.00 59 1018.9
20260502195714 17 207 8.0 14.5 0.00 0.00 0.00 59 1018.8
20260502195704 17 211 8.0 14.5 0.00 0.00 0.00 59 1018.9
20260502195604 17 209 8.0 14.5 0.00 0.00 0.00 59 1018.9
20260502195601 17 209 8.0 14.5 0.00 0.00 0.00 59 1018.8
20260502195503 17 209 8.0 14.5 0.00 0.00 0.00 59 1018.8
20260502195403 17 208 8.0 14.5 0.00 0.00 0.00 59 1018.9
20260502195304 17 207 8.0 14.5 0.00 0.00 0.00 59 1018.8
20260502195203 17 207 8.0 14.5 0.00 0.00 0.00 59 1018.8
20260502195114 17 208 8.0 12.9 0.00 0.00 0.00 59 1018.9
20260502195104 17 207 8.0 14.5 0.00 0.00 0.00 59 1018.8
20260502195002 17 207 8.0 14.5 0.00 0.00 0.00 59 1018.9
20260502194904 17 207 8.0 14.5 0.00 0.00 0.00 59 1018.8
20260502194803 17 207 8.0 12.9 0.00 0.00 0.00 59 1018.9
20260502194702 17 208 8.0 12.9 0.00 0.00 0.00 59 1018.9
20260502194604 17 208 8.0 12.9 0.00 0.00 0.00 59 1018.9
20260502194513 17 207 6.4 12.9 0.00 0.00 0.00 59 1018.8
20260502194504 17 208 6.4 12.9 0.00 0.00 0.00 59 1018.8
20260502194402 17 208 6.4 12.9 0.00 0.00 0.00 59 1018.8
20260502194303 17 208 6.4 12.9 0.00 0.00 0.00 59 1018.8
20260502194203 17 208 6.4 12.9 0.00 0.00 0.00 59 1018.9
20260502194102 17 207 6.4 12.9 0.00 0.00 0.00 59 1018.8
20260502194004 17 207 6.4 11.3 0.00 0.00 0.00 59 1018.8
20260502193904 17 206 6.4 11.3 0.00 0.00 0.00 59 1018.8
20260502193803 17 206 6.4 11.3 0.00 0.00 0.00 59 1018.8
20260502193801 17 205 6.4 11.3 0.00 0.00 0.00 59 1018.8
20260502193703 17 205 6.4 11.3 0.00 0.00 0.00 59 1018.7
20260502193603 17 205 6.4 11.3 0.00 0.00 0.00 59 1018.7
20260502193502 17 204 6.4 11.3 0.00 0.00 0.00 59 1018.8
20260502193404 17 204 6.4 11.3 0.00 0.00 0.00 59 1018.7
20260502193304 17 204 8.0 11.3 0.00 0.00 0.00 59 1018.7
20260502193203 17 205 8.0 11.3 0.00 0.00 0.00 59 1018.7
20260502193103 17 205 8.0 11.3 0.00 0.00 0.00 59 1018.8
20260502193003 17 206 8.0 11.3 0.00 0.00 0.00 59 1018.8
20260502192903 17 206 6.4 11.3 0.00 0.00 0.00 59 1018.7
20260502192804 17 207 6.4 11.3 0.00 0.00 0.00 59 1018.7
20260502192704 17 210 6.4 11.3 0.00 0.00 0.00 59 1018.7
20260502192603 17 210 6.4 11.3 0.00 0.00 0.00 59 1018.7
20260502192601 17 210 6.4 11.3 0.00 0.00 0.00 59 1018.6
20260502192503 17 210 6.4 11.3 0.00 0.00 0.00 59 1018.6
20260502192403 17 211 6.4 11.3 0.00 0.00 0.00 59 1018.6
20260502192304 17 212 6.4 11.3 0.00 0.00 0.00 59 1018.7
20260502192203 17 213 4.8 11.3 0.00 0.00 0.00 59 1018.6
20260502192103 17 214 4.8 11.3 0.00 0.00 0.00 59 1018.7
20260502192016 17 215 4.8 11.3 0.00 0.00 0.00 58 1018.7
20260502192003 17 215 4.8 11.3 0.00 0.00 0.00 59 1018.6
20260502192001 17 215 4.8 11.3 0.00 0.00 0.00 59 1018.7
20260502191916 17 216 4.8 11.3 0.00 0.00 0.00 58 1018.6
20260502191903 17 215 4.8 11.3 0.00 0.00 0.00 59 1018.7
20260502191803 17 215 4.8 11.3 0.00 0.00 0.00 58 1018.5
20260502191703 17 215 4.8 11.3 0.00 0.00 0.00 58 1018.7
20260502191605 17 215 4.8 11.3 0.00 0.00 0.00 58 1018.7
20260502191505 17 216 4.8 11.3 0.00 0.00 0.00 58 1018.6
20260502191402 17 218 4.8 11.3 0.00 0.00 0.00 59 1018.4
20260502191303 17 218 4.8 9.7 0.00 0.00 0.00 58 1018.6
20260502191203 17 218 4.8 9.7 0.00 0.00 0.00 59 1018.5
20260502191115 17 218 3.2 9.7 0.00 0.00 0.00 58 1018.5
20260502191102 17 217 4.8 9.7 0.00 0.00 0.00 58 1018.6
20260502191015 17 218 3.2 9.7 0.00 0.00 0.00 59 1018.5
20260502191004 17 217 3.2 9.7 0.00 0.00 0.00 58 1018.5
20260502190904 17 217 3.2 9.7 0.00 0.00 0.00 58 1018.5
20260502190801 17 217 3.2 9.7 0.00 0.00 0.00 58 1018.6
20260502190715 18 217 1.6 6.4 0.00 0.00 0.00 59 1018.5
20260502190703 17 218 3.2 9.7 0.00 0.00 0.00 58 1018.5
20260502190614 18 213 0.0 4.8 0.00 0.00 0.00 59 1018.5
20260502190603 17 218 3.2 9.7 0.00 0.00 0.00 59 1018.5
20260502190509 18 212 0.0 3.2 0.00 0.00 0.00 59 1018.5
20260502190502 17 218 1.6 9.7 0.00 0.00 0.00 59 1018.5
20260502190404 17 218 1.6 9.7 0.00 0.00 0.00 59 1018.5
20260502190314 18 212 1.6 3.2 0.00 0.00 0.00 59 1018.5
20260502190303 18 217 1.6 6.4 0.00 0.00 0.00 59 1018.5
20260502190203 18 213 0.0 4.8 0.00 0.00 0.00 59 1018.5
20260502190201 18 212 0.0 3.2 0.00 0.00 0.00 59 1018.5
20260502190109 18 211 1.6 4.8 0.00 0.00 0.00 58 1018.4
20260502190014 18 210 1.6 4.8 0.00 0.00 0.00 58 1018.5
20260502190009 18 208 1.6 4.8 0.00 0.00 0.00 58 1018.5
20260502190004 18 214 1.6 3.2 0.00 0.00 0.00 59 1018.5
20260502185903 18 212 1.6 3.2 0.00 0.00 0.00 59 1018.5
20260502185804 18 212 1.6 4.8 0.00 0.00 0.00 58 1018.5
20260502185759 18 206 1.6 4.8 0.00 0.00 0.00 58 1018.5
20260502185714 18 208 1.6 4.8 0.00 0.00 0.00 58 1018.4
20260502185704 18 211 1.6 4.8 0.00 0.00 0.00 58 1018.4
20260502185604 18 210 1.6 4.8 0.00 0.00 0.00 58 1018.5
20260502185601 18 208 1.6 4.8 0.00 0.00 0.00 58 1018.5
20260502185503 18 208 1.6 4.8 0.00 0.00 0.00 58 1018.5
20260502185403 18 206 1.6 4.8 0.00 0.00 0.00 58 1018.5
20260502185305 18 208 1.6 4.8 0.00 0.00 0.00 58 1018.4
20260502185204 18 208 1.6 4.8 0.00 0.00 0.00 58 1018.4
20260502185108 18 196 0.0 3.2 0.00 0.00 0.00 57 1018.3
20260502185103 18 208 1.6 4.8 0.00 0.00 0.00 57 1018.4
20260502185013 18 196 0.0 3.2 0.00 0.00 0.00 57 1018.3
20260502185003 18 208 0.0 4.8 0.00 0.00 0.00 57 1018.4
20260502185001 18 206 0.0 4.8 0.00 0.00 0.00 57 1018.4
20260502184903 18 206 0.0 4.8 0.00 0.00 0.00 57 1018.4
20260502184804 18 201 0.0 3.2 0.00 0.00 0.00 57 1018.4
20260502184707 18 194 1.6 4.8 0.00 0.00 0.00 56 1018.3
20260502184703 18 199 0.0 3.2 0.00 0.00 0.00 56 1018.3
20260502184701 18 196 0.0 3.2 0.00 0.00 0.00 57 1018.3
20260502184612 18 194 1.6 4.8 0.00 0.00 0.00 56 1018.3
20260502184603 18 196 0.0 3.2 0.00 0.00 0.00 57 1018.3
20260502184507 18 199 1.6 6.4 0.00 0.00 0.00 56 1018.2
20260502184503 18 192 0.0 3.2 0.00 0.00 0.00 57 1018.3
20260502184412 18 201 3.2 6.4 0.00 0.00 0.00 56 1018.2
20260502184403 18 191 0.0 4.8 0.00 0.00 0.00 56 1018.3
20260502184305 18 194 1.6 4.8 0.00 0.00 0.00 56 1018.3
20260502184212 18 204 3.2 6.4 0.00 0.00 0.00 56 1018.3
20260502184204 18 194 1.6 4.8 0.00 0.00 0.00 56 1018.3
20260502184103 18 199 1.6 6.4 0.00 0.00 0.00 56 1018.2
20260502184101 18 201 3.2 6.4 0.00 0.00 0.00 56 1018.2
20260502184012 18 209 4.8 6.4 0.00 0.00 0.00 56 1018.2
20260502184003 18 201 3.2 6.4 0.00 0.00 0.00 56 1018.2
20260502183912 18 209 4.8 6.4 0.00 0.00 0.00 56 1018.2
20260502183903 18 202 3.2 6.4 0.00 0.00 0.00 56 1018.3
20260502183857 18 211 4.8 6.4 0.00 0.00 0.00 56 1018.2
20260502183812 18 211 4.8 6.4 0.00 0.00 0.00 56 1018.2
20260502183802 18 204 3.2 6.4 0.00 0.00 0.00 56 1018.3
20260502183711 18 211 4.8 6.4 0.00 0.00 0.00 56 1018.2
20260502183704 18 205 3.2 6.4 0.00 0.00 0.00 56 1018.2
20260502183604 18 209 4.8 6.4 0.00 0.00 0.00 56 1018.2
20260502183506 18 210 4.8 6.4 0.00 0.00 0.00 55 1018.2
20260502183503 18 209 4.8 6.4 0.00 0.00 0.00 56 1018.2
20260502183501 18 211 4.8 6.4 0.00 0.00 0.00 56 1018.2
20260502183403 18 211 4.8 6.4 0.00 0.00 0.00 56 1018.2
20260502183351 18 210 4.8 6.4 0.00 0.00 0.00 55 1018.2
20260502183304 18 211 4.8 6.4 0.00 0.00 0.00 56 1018.2
20260502183202 18 211 4.8 6.4 0.00 0.00 0.00 56 1018.3
20260502183106 18 211 4.8 6.4 0.00 0.00 0.00 55 1018.0
20260502183104 18 210 4.8 6.4 0.00 0.00 0.00 55 1018.2
20260502183011 19 212 4.8 6.4 0.00 0.00 0.00 54 1018.1
20260502183004 18 210 4.8 6.4 0.00 0.00 0.00 55 1018.2
20260502182903 18 210 4.8 6.4 0.00 0.00 0.00 55 1018.3
20260502182804 18 210 4.8 6.4 0.00 0.00 0.00 55 1018.2
20260502182710 19 212 4.8 6.4 0.00 0.00 0.00 54 1018.2
20260502182704 18 211 4.8 6.4 0.00 0.00 0.00 55 1018.0
20260502182601 19 212 4.8 6.4 0.00 0.00 0.00 54 1018.1
20260502182510 19 212 4.8 6.4 0.00 0.00 0.00 55 1018.2
20260502182503 19 212 4.8 6.4 0.00 0.00 0.00 54 1018.1
20260502182403 19 211 4.8 6.4 0.00 0.00 0.00 54 1018.1
20260502182304 19 212 4.8 6.4 0.00 0.00 0.00 55 1018.1
20260502182301 19 212 4.8 6.4 0.00 0.00 0.00 54 1018.2
20260502182215 19 215 3.2 6.4 0.00 0.00 0.00 55 1018.1
20260502182203 19 212 4.8 6.4 0.00 0.00 0.00 54 1018.2
20260502182110 19 215 3.2 6.4 0.00 0.00 0.00 55 1018.1
20260502182103 19 212 4.8 6.4 0.00 0.00 0.00 55 1018.2
20260502182015 19 211 3.2 6.4 0.00 0.00 0.00 54 1018.1
20260502182002 19 213 4.8 6.4 0.00 0.00 0.00 55 1018.1
20260502181910 19 211 3.2 6.4 0.00 0.00 0.00 54 1018.1
20260502181904 19 214 3.2 6.4 0.00 0.00 0.00 55 1018.1
20260502181810 19 214 3.2 6.4 0.00 0.00 0.00 54 1018.1
20260502181804 19 215 3.2 6.4 0.00 0.00 0.00 55 1018.1
20260502181709 19 214 3.2 6.4 0.00 0.00 0.00 54 1018.1
20260502181702 19 215 3.2 6.4 0.00 0.00 0.00 55 1018.1
20260502181614 19 214 3.2 6.4 0.00 0.00 0.00 54 1018.0
20260502181603 19 211 3.2 6.4 0.00 0.00 0.00 54 1018.1
20260502181509 19 214 3.2 6.4 0.00 0.00 0.00 55 1018.0
20260502181503 19 211 3.2 6.4 0.00 0.00 0.00 54 1018.1
20260502181403 19 213 3.2 6.4 0.00 0.00 0.00 54 1018.1
20260502181401 19 214 3.2 6.4 0.00 0.00 0.00 54 1018.1
20260502181354 19 213 4.8 9.7 0.00 0.00 0.00 54 1018.0
20260502181305 19 214 3.2 6.4 0.00 0.00 0.00 54 1018.1
20260502181214 19 211 4.8 9.7 0.00 0.00 0.00 53 1018.1
20260502181203 19 214 3.2 6.4 0.00 0.00 0.00 54 1018.0
20260502181114 19 210 4.8 9.7 0.00 0.00 0.00 53 1018.0
20260502181102 19 214 3.2 6.4 0.00 0.00 0.00 55 1018.0
20260502181009 19 211 4.8 9.7 0.00 0.00 0.00 52 1018.0
20260502181004 19 213 4.8 9.7 0.00 0.00 0.00 54 1018.0
20260502180914 19 211 4.8 9.7 0.00 0.00 0.00 52 1018.0
20260502180904 19 211 4.8 9.7 0.00 0.00 0.00 53 1018.1
20260502180801 19 211 4.8 9.7 0.00 0.00 0.00 53 1018.1
20260502180713 19 208 4.8 9.7 0.00 0.00 0.00 51 1018.0
20260502180703 19 210 4.8 9.7 0.00 0.00 0.00 53 1018.0
20260502180603 19 211 4.8 9.7 0.00 0.00 0.00 52 1018.0
20260502180502 19 211 4.8 9.7 0.00 0.00 0.00 52 1018.0
20260502180404 19 209 4.8 9.7 0.00 0.00 0.00 51 1017.9
20260502180304 19 208 4.8 9.7 0.00 0.00 0.00 51 1018.0
20260502180204 20 208 4.8 9.7 0.00 0.00 0.00 51 1018.0
20260502180201 20 209 4.8 9.7 0.00 0.00 0.00 52 1017.9
20260502170502 21 105 0.0 4.8 0.00 0.00 0.00 45 1017.7
20260502170458 21 146 0.0 3.2 0.00 0.00 0.00 44 1017.7
20260502170404 21 103 0.0 4.8 0.00 0.00 0.00 44 1017.6
20260502170304 21 106 0.0 4.8 0.00 0.00 0.00 44 1017.7
20260502170213 21 196 0.0 3.2 0.00 0.00 0.00 44 1017.6
20260502170201 21 106 0.0 3.2 0.00 0.00 0.00 45 1017.7
20260502170113 21 285 0.0 3.2 0.00 0.00 0.00 44 1017.6
20260502170103 21 146 0.0 3.2 0.00 0.00 0.00 44 1017.7
20260502164311 22 82 4.8 14.5 0.00 0.00 0.00 43 1017.7
20260502164303 21 80 4.8 14.5 0.00 0.00 0.00 43 1017.7
20260502164206 22 83 4.8 14.5 0.00 0.00 0.00 43 1017.6
20260502164204 21 79 4.8 14.5 0.00 0.00 0.00 43 1017.7
20260502164106 22 83 4.8 14.5 0.00 0.00 0.00 43 1017.6
20260502164103 21 80 4.8 14.5 0.00 0.00 0.00 43 1017.7
20260502164101 22 80 4.8 14.5 0.00 0.00 0.00 43 1017.7
20260502164006 22 83 6.4 14.5 0.00 0.00 0.00 43 1017.7
20260502164003 22 80 4.8 14.5 0.00 0.00 0.00 43 1017.7
20260502163911 22 80 4.8 12.9 0.00 0.00 0.00 43 1017.7
20260502163906 22 81 4.8 12.9 0.00 0.00 0.00 43 1017.7
20260502163903 22 82 4.8 14.5 0.00 0.00 0.00 43 1017.7
20260502163811 22 82 4.8 12.9 0.00 0.00 0.00 43 1017.7
20260502163803 22 83 4.8 14.5 0.00 0.00 0.00 43 1017.6
20260502163706 22 82 4.8 12.9 0.00 0.00 0.00 43 1017.7
20260502163704 22 83 4.8 14.5 0.00 0.00 0.00 43 1017.6
20260502163616 22 84 6.4 12.9 0.00 0.00 0.00 43 1017.7
20260502163604 22 83 6.4 14.5 0.00 0.00 0.00 43 1017.7
20260502163510 22 85 6.4 12.9 0.00 0.00 0.00 43 1017.7
20260502163503 22 80 4.8 12.9 0.00 0.00 0.00 43 1017.7
20260502163501 22 81 4.8 12.9 0.00 0.00 0.00 43 1017.7
20260502163403 22 82 4.8 12.9 0.00 0.00 0.00 43 1017.7
20260502163310 22 85 6.4 12.9 0.00 0.00 0.00 43 1017.9
20260502163304 22 82 4.8 12.9 0.00 0.00 0.00 43 1017.7
20260502163210 22 82 4.8 12.9 0.00 0.00 0.00 42 1017.8
20260502163202 22 84 6.4 12.9 0.00 0.00 0.00 43 1017.7
20260502163115 22 88 4.8 12.9 0.00 0.00 0.00 42 1017.8
20260502163104 22 85 6.4 12.9 0.00 0.00 0.00 43 1017.7
20260502163010 22 88 4.8 12.9 0.00 0.00 0.00 42 1017.8
20260502163004 22 85 6.4 12.9 0.00 0.00 0.00 43 1017.8
20260502162915 22 88 4.8 12.9 0.00 0.00 0.00 42 1017.8
20260502162903 22 85 6.4 12.9 0.00 0.00 0.00 43 1017.9
20260502162804 22 82 4.8 12.9 0.00 0.00 0.00 42 1017.8
20260502162715 22 86 4.8 11.3 0.00 0.00 0.00 42 1017.7
20260502162704 22 88 4.8 12.9 0.00 0.00 0.00 42 1017.8
20260502162610 22 88 4.8 11.3 0.00 0.00 0.00 42 1017.8
20260502162601 22 88 4.8 12.9 0.00 0.00 0.00 42 1017.8
20260502162515 22 90 4.8 11.3 0.00 0.00 0.00 42 1017.9
20260502162503 22 88 4.8 12.9 0.00 0.00 0.00 42 1017.8
20260502162415 22 92 4.8 11.3 0.00 0.00 0.00 43 1017.8
20260502162403 22 87 4.8 11.3 0.00 0.00 0.00 42 1017.8
20260502162304 22 86 4.8 11.3 0.00 0.00 0.00 42 1017.7
20260502162204 22 88 4.8 11.3 0.00 0.00 0.00 42 1017.8
20260502162109 22 91 4.8 11.3 0.00 0.00 0.00 41 1017.8
20260502162103 22 90 4.8 11.3 0.00 0.00 0.00 42 1017.9
20260502162009 22 91 4.8 11.3 0.00 0.00 0.00 41 1017.8
20260502162001 22 92 4.8 11.3 0.00 0.00 0.00 43 1017.8
20260502161914 22 92 4.8 11.3 0.00 0.00 0.00 41 1017.9
20260502161903 22 90 4.8 11.3 0.00 0.00 0.00 42 1017.8
20260502161809 22 91 4.8 11.3 0.00 0.00 0.00 41 1017.9
20260502161803 22 91 4.8 11.3 0.00 0.00 0.00 42 1017.9
20260502161709 22 89 6.4 11.3 0.00 0.00 0.00 41 1017.9
20260502161701 22 91 4.8 11.3 0.00 0.00 0.00 41 1017.8
20260502161603 22 91 4.8 11.3 0.00 0.00 0.00 41 1017.8
20260502161509 22 86 4.8 11.3 0.00 0.00 0.00 42 1018.0
20260502161504 22 92 4.8 11.3 0.00 0.00 0.00 41 1017.9
20260502161402 22 91 4.8 11.3 0.00 0.00 0.00 41 1017.9
20260502161349 22 87 6.4 14.5 0.00 0.00 0.00 43 1018.0
20260502161304 22 89 6.4 11.3 0.00 0.00 0.00 41 1017.9
20260502161213 22 88 6.4 14.5 0.00 0.00 0.00 42 1018.0
20260502161203 22 89 4.8 11.3 0.00 0.00 0.00 41 1017.9
20260502161113 22 84 6.4 14.5 0.00 0.00 0.00 42 1018.0
20260502161101 22 86 4.8 11.3 0.00 0.00 0.00 42 1018.0
20260502161008 22 83 6.4 14.5 0.00 0.00 0.00 42 1017.9
20260502161003 22 87 6.4 14.5 0.00 0.00 0.00 43 1018.0
20260502160903 22 87 6.4 14.5 0.00 0.00 0.00 43 1018.0
20260502160802 22 88 6.4 14.5 0.00 0.00 0.00 42 1018.0
20260502160713 22 79 6.4 14.5 0.00 0.00 0.00 41 1018.0
20260502160704 22 84 6.4 14.5 0.00 0.00 0.00 42 1018.0
20260502160604 22 83 6.4 14.5 0.00 0.00 0.00 42 1017.9
20260502160501 22 83 6.4 14.5 0.00 0.00 0.00 41 1017.9
20260502160403 22 80 6.4 14.5 0.00 0.00 0.00 41 1018.0
20260502160304 22 79 6.4 14.5 0.00 0.00 0.00 41 1018.0
20260502160202 22 79 6.4 14.5 0.00 0.00 0.00 41 1018.0
20260502160104 22 79 6.4 14.5 0.00 0.00 0.00 41 1017.9
20260502152301 22 77 9.7 17.7 0.00 0.00 0.00 41 1018.3
20260502152203 22 79 9.7 17.7 0.00 0.00 0.00 41 1018.4
20260502152114 22 77 8.0 17.7 0.00 0.00 0.00 42 1018.4
20260502152103 22 79 9.7 17.7 0.00 0.00 0.00 41 1018.4
20260502152002 22 78 9.7 17.7 0.00 0.00 0.00 41 1018.3
20260502151904 22 79 9.7 17.7 0.00 0.00 0.00 41 1018.4
20260502151804 22 79 8.0 17.7 0.00 0.00 0.00 42 1018.4
20260502151713 22 85 6.4 17.7 0.00 0.00 0.00 40 1018.3
20260502151702 22 77 8.0 17.7 0.00 0.00 0.00 42 1018.4
20260502151603 22 75 8.0 17.7 0.00 0.00 0.00 41 1018.4
20260502151513 22 89 6.4 16.1 0.00 0.00 0.00 41 1018.4
20260502151503 22 77 8.0 17.7 0.00 0.00 0.00 41 1018.4
20260502151403 22 82 8.0 17.7 0.00 0.00 0.00 41 1018.4
20260502151304 22 85 6.4 17.7 0.00 0.00 0.00 40 1018.3
20260502151204 22 89 6.4 16.1 0.00 0.00 0.00 41 1018.4
20260502151101 22 89 6.4 16.1 0.00 0.00 0.00 41 1018.4
20260502151003 22 87 6.4 16.1 0.00 0.00 0.00 41 1018.4
20260502150903 22 83 6.4 16.1 0.00 0.00 0.00 40 1018.5
20260502150802 22 76 6.4 16.1 0.00 0.00 0.00 41 1018.5
20260502150703 22 74 6.4 16.1 0.00 0.00 0.00 41 1018.4
20260502150603 22 77 6.4 16.1 0.00 0.00 0.00 41 1018.4
20260502150502 22 78 8.0 17.7 0.00 0.00 0.00 42 1018.5
20260502150412 22 83 11.3 19.3 0.00 0.00 0.00 42 1018.5
20260502150404 22 78 8.0 17.7 0.00 0.00 0.00 42 1018.5
20260502150312 22 85 11.3 19.3 0.00 0.00 0.00 41 1018.5
20260502150304 22 81 8.0 17.7 0.00 0.00 0.00 41 1018.5
20260502150212 22 87 11.3 19.3 0.00 0.00 0.00 40 1018.6
20260502150201 22 82 9.7 19.3 0.00 0.00 0.00 41 1018.4
20260502150103 22 81 9.7 19.3 0.00 0.00 0.00 42 1018.4
20260502140103 21 73 11.3 22.5 0.00 0.00 0.00 42 1019.2
20260502130704 21 84 12.9 20.9 0.00 0.00 0.00 41 1020.2
20260502130603 21 85 12.9 20.9 0.00 0.00 0.00 41 1020.3
20260502130501 21 83 12.9 20.9 0.00 0.00 0.00 41 1020.3
20260502130403 21 81 12.9 20.9 0.00 0.00 0.00 42 1020.2
20260502130303 21 81 12.9 20.9 0.00 0.00 0.00 42 1020.2
20260502130202 21 80 12.9 20.9 0.00 0.00 0.00 43 1020.3
20260502130104 21 81 12.9 20.9 0.00 0.00 0.00 42 1020.3
20260502123802 21 76 9.7 20.9 0.00 0.00 0.00 42 1020.6
20260502123703 21 78 9.7 20.9 0.00 0.00 0.00 41 1020.6
20260502123613 21 80 9.7 20.9 0.00 0.00 0.00 42 1020.7
20260502123603 21 79 9.7 20.9 0.00 0.00 0.00 41 1020.6
20260502123503 21 81 8.0 20.9 0.00 0.00 0.00 42 1020.7
20260502123501 21 79 8.0 20.9 0.00 0.00 0.00 43 1020.7
20260502123403 21 79 9.7 20.9 0.00 0.00 0.00 42 1020.6
20260502123304 21 79 9.7 20.9 0.00 0.00 0.00 42 1020.6
20260502123201 21 80 9.7 20.9 0.00 0.00 0.00 42 1020.7
20260502123103 21 77 11.3 17.7 0.00 0.00 0.00 42 1020.6
20260502123004 21 74 9.7 17.7 0.00 0.00 0.00 42 1020.6
20260502122903 21 72 11.3 17.7 0.00 0.00 0.00 42 1020.7
20260502122901 21 72 11.3 17.7 0.00 0.00 0.00 43 1020.9
20260502122803 21 72 11.3 17.7 0.00 0.00 0.00 43 1020.9
20260502122704 21 72 11.3 17.7 0.00 0.00 0.00 43 1020.8
20260502122602 20 73 11.3 17.7 0.00 0.00 0.00 43 1020.8
20260502122504 20 74 11.3 17.7 0.00 0.00 0.00 43 1020.8
20260502122404 20 75 11.3 17.7 0.00 0.00 0.00 43 1020.8
20260502122305 20 75 11.3 17.7 0.00 0.00 0.00 43 1020.8
20260502122204 20 74 11.3 17.7 0.00 0.00 0.00 43 1020.9
20260502122104 20 73 9.7 17.7 0.00 0.00 0.00 43 1020.9
20260502122001 20 74 9.7 17.7 0.00 0.00 0.00 42 1020.8
20260502121903 20 75 9.7 17.7 0.00 0.00 0.00 42 1020.9
20260502121803 21 77 9.7 17.7 0.00 0.00 0.00 41 1020.8
20260502121701 21 80 8.0 16.1 0.00 0.00 0.00 42 1021.0
20260502121603 21 80 8.0 16.1 0.00 0.00 0.00 42 1021.0
20260502121503 21 79 9.7 17.7 0.00 0.00 0.00 43 1021.0
20260502121403 20 78 9.7 17.7 0.00 0.00 0.00 43 1021.0
20260502121304 20 77 9.7 17.7 0.00 0.00 0.00 43 1021.0
20260502121203 20 78 11.3 17.7 0.00 0.00 0.00 42 1021.0
20260502121101 20 78 11.3 17.7 0.00 0.00 0.00 43 1021.1
20260502121003 20 79 11.3 17.7 0.00 0.00 0.00 43 1021.1
20260502120905 20 79 11.3 17.7 0.00 0.00 0.00 43 1021.1
20260502120816 20 82 11.3 20.9 0.00 0.00 0.00 43 1021.2
20260502120802 20 79 11.3 20.9 0.00 0.00 0.00 44 1021.2
20260502120703 20 81 12.9 20.9 0.00 0.00 0.00 44 1021.1
20260502120603 20 80 12.9 20.9 0.00 0.00 0.00 44 1021.2
20260502120502 20 81 12.9 20.9 0.00 0.00 0.00 43 1021.1
20260502120404 20 82 11.3 20.9 0.00 0.00 0.00 43 1021.2
20260502120304 20 83 11.3 20.9 0.00 0.00 0.00 44 1021.3
20260502120215 20 90 9.7 19.3 0.00 0.00 0.00 43 1021.3
20260502120201 20 84 11.3 20.9 0.00 0.00 0.00 43 1021.3
20260502115903 20 88 11.3 20.9 0.00 0.00 0.00 43 1021.3
20260502115901 20 90 9.7 19.3 0.00 0.00 0.00 43 1021.3
20260502115804 20 90 9.7 19.3 0.00 0.00 0.00 43 1021.3
20260502115703 20 90 9.7 20.9 0.00 0.00 0.00 42 1021.4
20260502115603 20 91 9.7 20.9 0.00 0.00 0.00 43 1021.4
20260502115601 20 91 9.7 20.9 0.00 0.00 0.00 43 1021.3
20260502115503 20 91 9.7 20.9 0.00 0.00 0.00 43 1021.3
20260502115403 20 90 11.3 20.9 0.00 0.00 0.00 43 1021.3
20260502115301 20 90 11.3 20.9 0.00 0.00 0.00 42 1021.4
20260502115215 20 88 12.9 20.9 0.00 0.00 0.00 43 1021.5
20260502115204 20 90 11.3 20.9 0.00 0.00 0.00 42 1021.4
20260502115104 20 90 11.3 20.9 0.00 0.00 0.00 42 1021.4
20260502115002 20 90 11.3 20.9 0.00 0.00 0.00 42 1021.4
20260502114904 20 90 11.3 20.9 0.00 0.00 0.00 42 1021.5
20260502114803 20 88 12.9 20.9 0.00 0.00 0.00 43 1021.5
20260502114714 20 86 11.3 19.3 0.00 0.00 0.00 43 1021.5
20260502114702 20 88 12.9 19.3 0.00 0.00 0.00 43 1021.5
20260502114604 20 87 12.9 19.3 0.00 0.00 0.00 43 1021.6
20260502114504 20 87 12.9 19.3 0.00 0.00 0.00 43 1021.6
20260502114401 20 86 12.9 19.3 0.00 0.00 0.00 43 1021.7
20260502114303 20 86 11.3 19.3 0.00 0.00 0.00 43 1021.5
20260502114203 20 84 11.3 19.3 0.00 0.00 0.00 43 1021.6
20260502114102 20 84 11.3 19.3 0.00 0.00 0.00 43 1021.6
20260502114004 20 83 11.3 19.3 0.00 0.00 0.00 43 1021.7
20260502113904 20 83 11.3 19.3 0.00 0.00 0.00 43 1021.6
20260502113803 20 84 11.3 19.3 0.00 0.00 0.00 43 1021.7
20260502113801 20 82 11.3 19.3 0.00 0.00 0.00 43 1021.7
20260502113704 20 82 11.3 19.3 0.00 0.00 0.00 43 1021.7
20260502113613 20 81 9.7 17.7 0.00 0.00 0.00 43 1021.9
20260502113604 20 81 11.3 19.3 0.00 0.00 0.00 44 1021.8
20260502113502 20 81 11.3 19.3 0.00 0.00 0.00 44 1021.8
20260502113404 20 80 11.3 17.7 0.00 0.00 0.00 44 1021.7
20260502113303 20 80 9.7 17.7 0.00 0.00 0.00 43 1021.8
20260502113202 20 81 9.7 17.7 0.00 0.00 0.00 43 1021.9
20260502113104 20 80 9.7 17.7 0.00 0.00 0.00 43 1021.8
20260502113004 20 78 8.0 16.1 0.00 0.00 0.00 43 1021.8
20260502112901 20 81 8.0 16.1 0.00 0.00 0.00 43 1021.9
20260502112803 20 81 8.0 16.1 0.00 0.00 0.00 43 1021.9
20260502112704 20 81 8.0 16.1 0.00 0.00 0.00 43 1021.9
20260502112602 20 83 8.0 16.1 0.00 0.00 0.00 42 1021.9
20260502112504 20 84 8.0 16.1 0.00 0.00 0.00 42 1021.8
20260502112404 20 86 8.0 16.1 0.00 0.00 0.00 42 1021.8
20260502112305 20 88 8.0 16.1 0.00 0.00 0.00 42 1021.9
20260502112204 20 87 8.0 16.1 0.00 0.00 0.00 42 1021.9
20260502112104 20 87 8.0 16.1 0.00 0.00 0.00 42 1021.9
20260502112002 20 90 8.0 16.1 0.00 0.00 0.00 42 1021.9
20260502111904 20 89 8.0 16.1 0.00 0.00 0.00 42 1022.0
20260502111803 20 88 8.0 16.1 0.00 0.00 0.00 43 1022.1
20260502111701 19 89 9.7 16.1 0.00 0.00 0.00 43 1022.0
20260502111603 19 90 9.7 16.1 0.00 0.00 0.00 42 1022.1
20260502111503 19 91 9.7 16.1 0.00 0.00 0.00 43 1022.0
20260502111416 20 90 8.0 16.1 0.00 0.00 0.00 42 1022.2
20260502111403 19 91 9.7 16.1 0.00 0.00 0.00 43 1022.0
20260502111316 20 90 8.0 16.1 0.00 0.00 0.00 42 1022.1
20260502111304 19 89 9.7 16.1 0.00 0.00 0.00 43 1022.1
20260502111203 20 90 8.0 16.1 0.00 0.00 0.00 42 1022.0
20260502111103 20 91 8.0 16.1 0.00 0.00 0.00 42 1022.1
20260502111005 20 90 8.0 16.1 0.00 0.00 0.00 42 1022.2
20260502110904 20 90 8.0 16.1 0.00 0.00 0.00 42 1022.1
20260502110802 20 93 8.0 16.1 0.00 0.00 0.00 41 1022.1
20260502110704 20 93 8.0 16.1 0.00 0.00 0.00 41 1022.1
20260502110604 20 93 8.0 16.1 0.00 0.00 0.00 42 1022.2
20260502110502 20 91 8.0 16.1 0.00 0.00 0.00 43 1022.2
20260502110404 20 92 8.0 16.1 0.00 0.00 0.00 43 1022.2
20260502110304 20 93 8.0 16.1 0.00 0.00 0.00 43 1022.3
20260502110203 20 93 8.0 16.1 0.00 0.00 0.00 42 1022.3
20260502110201 20 96 8.0 16.1 0.00 0.00 0.00 42 1022.3
20260502110115 19 90 8.0 16.1 0.00 0.00 0.00 43 1022.5
20260502110103 20 97 8.0 16.1 0.00 0.00 0.00 41 1022.3
20260502110003 20 97 8.0 16.1 0.00 0.00 0.00 41 1022.3
20260502105915 19 89 8.0 16.1 0.00 0.00 0.00 44 1022.5
20260502105903 20 93 8.0 16.1 0.00 0.00 0.00 42 1022.4
20260502105804 20 91 8.0 16.1 0.00 0.00 0.00 43 1022.4
20260502105704 19 90 8.0 16.1 0.00 0.00 0.00 43 1022.5
20260502105614 19 88 9.7 16.1 0.00 0.00 0.00 44 1022.5
20260502105601 19 89 8.0 16.1 0.00 0.00 0.00 43 1022.4
20260502105503 19 89 8.0 16.1 0.00 0.00 0.00 44 1022.5
20260502105414 19 86 11.3 16.1 0.00 0.00 0.00 44 1022.5
20260502105403 19 89 9.7 16.1 0.00 0.00 0.00 44 1022.6
20260502105301 19 89 9.7 16.1 0.00 0.00 0.00 44 1022.6
20260502105214 19 87 11.3 16.1 0.00 0.00 0.00 44 1022.6
20260502105203 19 88 9.7 16.1 0.00 0.00 0.00 44 1022.5
20260502105103 19 85 9.7 16.1 0.00 0.00 0.00 44 1022.4
20260502105001 19 86 11.3 16.1 0.00 0.00 0.00 44 1022.5
20260502104903 19 86 11.3 16.1 0.00 0.00 0.00 44 1022.6
20260502104803 19 87 11.3 16.1 0.00 0.00 0.00 44 1022.6
20260502104702 18 86 11.3 16.1 0.00 0.00 0.00 44 1022.6
20260502104604 18 86 11.3 16.1 0.00 0.00 0.00 43 1022.7
20260502104513 19 88 8.0 16.1 0.00 0.00 0.00 44 1022.7
20260502104504 18 85 9.7 16.1 0.00 0.00 0.00 44 1022.7
20260502104402 18 83 9.7 16.1 0.00 0.00 0.00 44 1022.6
20260502104303 18 83 9.7 16.1 0.00 0.00 0.00 44 1022.6
20260502104204 18 86 9.7 16.1 0.00 0.00 0.00 44 1022.7
20260502104102 19 88 8.0 16.1 0.00 0.00 0.00 44 1022.7
20260502104004 18 112 3.2 4.8 0.00 0.00 0.00 45 1022.7
20260502103904 18 108 1.6 3.2 0.00 0.00 0.00 45 1022.8
20260502103803 18 125 1.6 3.2 0.00 0.00 0.00 45 1022.7
20260502103801 18 139 3.2 3.2 0.00 0.00 0.00 45 1022.7
20260502103703 18 139 3.2 3.2 0.00 0.00 0.00 45 1022.7
20260502102001 19 90 6.4 16.1 0.00 0.00 0.00 46 1023.0
20260502101903 19 87 6.4 16.1 0.00 0.00 0.00 46 1023.1
20260502101802 19 89 6.4 14.5 0.00 0.00 0.00 47 1023.2
20260502101800 19 85 4.8 14.5 0.00 0.00 0.00 47 1023.1
20260502101702 19 85 4.8 14.5 0.00 0.00 0.00 47 1023.1
20260502101611 19 90 4.8 14.5 0.00 0.00 0.00 46 1023.2
20260502101602 19 83 4.8 14.5 0.00 0.00 0.00 47 1023.1
20260502101501 19 81 4.8 14.5 0.00 0.00 0.00 47 1023.2
20260502101401 19 81 4.8 14.5 0.00 0.00 0.00 47 1023.2
20260502101302 19 83 4.8 14.5 0.00 0.00 0.00 47 1023.2
20260502101202 19 90 4.8 14.5 0.00 0.00 0.00 46 1023.2
20260502101159 19 90 4.8 14.5 0.00 0.00 0.00 46 1023.2
20260502101101 19 90 4.8 14.5 0.00 0.00 0.00 46 1023.2
20260502101011 19 90 4.8 12.9 0.00 0.00 0.00 46 1023.3
20260502101001 19 87 4.8 14.5 0.00 0.00 0.00 46 1023.1
20260502100900 19 89 4.8 12.9 0.00 0.00 0.00 46 1023.2
20260502100802 19 89 4.8 12.9 0.00 0.00 0.00 46 1023.2
20260502100710 18 91 6.4 16.1 0.00 0.00 0.00 47 1023.3
20260502100701 19 90 4.8 12.9 0.00 0.00 0.00 46 1023.3
20260502100600 19 90 4.8 12.9 0.00 0.00 0.00 46 1023.3
20260502100501 19 90 4.8 12.9 0.00 0.00 0.00 46 1023.3
20260502100402 19 90 6.4 12.9 0.00 0.00 0.00 46 1023.3
20260502100302 18 92 6.4 14.5 0.00 0.00 0.00 47 1023.4
20260502100259 18 91 6.4 16.1 0.00 0.00 0.00 47 1023.3
20260502100201 18 91 6.4 16.1 0.00 0.00 0.00 47 1023.3
20260502091501 17 97 4.8 9.7 0.00 0.00 0.00 52 1024.1
20260502091400 17 100 4.8 9.7 0.00 0.00 0.00 51 1024.1
20260502091300 17 101 3.2 9.7 0.00 0.00 0.00 52 1024.1
20260502091202 17 101 3.2 9.7 0.00 0.00 0.00 52 1024.1
20260502091200 17 99 4.8 9.7 0.00 0.00 0.00 50 1024.1
20260502091102 17 99 4.8 9.7 0.00 0.00 0.00 50 1024.1
20260502091002 17 95 4.8 9.7 0.00 0.00 0.00 51 1024.1
20260502090901 17 90 4.8 9.7 0.00 0.00 0.00 52 1024.1
20260502090801 17 90 3.2 9.7 0.00 0.00 0.00 52 1024.2
20260502090701 17 89 3.2 9.7 0.00 0.00 0.00 52 1024.2
20260502090601 17 89 3.2 9.7 0.00 0.00 0.00 52 1024.2
20260502090501 17 88 3.2 6.4 0.00 0.00 0.00 53 1024.2
20260502090401 17 86 3.2 6.4 0.00 0.00 0.00 54 1024.1
20260502090301 17 82 3.2 6.4 0.00 0.00 0.00 55 1024.2
20260502090205 17 109 1.6 6.4 0.00 0.00 0.00 56 1024.2
20260502090202 17 78 1.6 6.4 0.00 0.00 0.00 56 1024.3
20260502090110 17 123 1.6 6.4 0.00 0.00 0.00 57 1024.2
20260502071501 13 348 3.2 6.4 0.00 0.00 0.00 69 1025.1
20260502071400 13 345 3.2 4.8 0.00 0.00 0.00 69 1025.2
20260502071300 13 347 3.2 4.8 0.00 0.00 0.00 69 1025.3
20260502071202 13 347 3.2 4.8 0.00 0.00 0.00 69 1025.3
20260502071200 13 347 3.2 4.8 0.00 0.00 0.00 69 1025.2
20260502071101 13 347 3.2 4.8 0.00 0.00 0.00 69 1025.2
20260502071001 13 346 3.2 6.4 0.00 0.00 0.00 69 1025.2
20260502070901 13 347 3.2 6.4 0.00 0.00 0.00 70 1025.3
20260502070800 13 349 4.8 6.4 0.00 0.00 0.00 70 1025.2
20260502070702 13 349 4.8 6.4 0.00 0.00 0.00 70 1025.2
20260502070602 13 349 4.8 9.7 0.00 0.00 0.00 70 1025.3
20260502070600 13 349 4.8 9.7 0.00 0.00 0.00 70 1025.3
20260502070501 13 349 4.8 9.7 0.00 0.00 0.00 70 1025.3
20260502070401 13 349 4.8 9.7 0.00 0.00 0.00 70 1025.3
20260502070301 13 351 4.8 9.7 0.00 0.00 0.00 70 1025.2
20260502070200 13 351 4.8 9.7 0.00 0.00 0.00 71 1025.3
20260502070100 13 353 4.8 9.7 0.00 0.00 0.00 71 1025.1
20260502070000 13 354 4.8 9.7 0.00 0.00 0.00 71 1025.2
20260502065901 13 354 4.8 9.7 0.00 0.00 0.00 71 1025.2
20260502065801 13 355 4.8 9.7 0.00 0.00 0.00 70 1025.2
20260502065702 13 354 4.8 9.7 0.00 0.00 0.00 70 1025.3
20260502065659 13 355 4.8 9.7 0.00 0.00 0.00 70 1025.3
20260502065601 13 355 4.8 9.7 0.00 0.00 0.00 70 1025.3
20260502065501 13 358 4.8 9.7 0.00 0.00 0.00 71 1025.4
20260502065413 12 347 4.8 9.7 0.00 0.00 0.00 71 1025.4
20260502065401 12 358 4.8 9.7 0.00 0.00 0.00 71 1025.4
20260502065300 12 356 4.8 9.7 0.00 0.00 0.00 72 1025.4
20260502065200 12 355 4.8 9.7 0.00 0.00 0.00 71 1025.4
20260502065100 12 350 4.8 9.7 0.00 0.00 0.00 71 1025.4
20260502065002 12 347 4.8 9.7 0.00 0.00 0.00 71 1025.4
20260502064900 12 344 4.8 9.7 0.00 0.00 0.00 72 1025.5
20260502064800 12 343 4.8 9.7 0.00 0.00 0.00 71 1025.5
20260502064700 12 339 3.2 9.7 0.00 0.00 0.00 72 1025.6
20260502064600 12 337 4.8 9.7 0.00 0.00 0.00 72 1025.4
20260502064513 12 336 4.8 9.7 0.00 0.00 0.00 74 1025.5
20260502064500 12 334 3.2 6.4 0.00 0.00 0.00 73 1025.6
20260502064402 12 334 3.2 6.4 0.00 0.00 0.00 73 1025.6
20260502064313 12 340 4.8 9.7 0.00 0.00 0.00 74 1025.4
20260502064302 12 335 4.8 9.7 0.00 0.00 0.00 73 1025.5
20260502064201 12 335 4.8 9.7 0.00 0.00 0.00 73 1025.6
20260502064101 12 336 4.8 9.7 0.00 0.00 0.00 74 1025.5
20260502064012 12 340 4.8 9.7 0.00 0.00 0.00 73 1025.5
20260502064001 12 340 4.8 9.7 0.00 0.00 0.00 74 1025.6
20260502063912 12 341 4.8 9.7 0.00 0.00 0.00 73 1025.5
20260502063901 12 340 4.8 9.7 0.00 0.00 0.00 74 1025.4
20260502063800 12 341 4.8 9.7 0.00 0.00 0.00 73 1025.6
20260502063702 12 341 4.8 9.7 0.00 0.00 0.00 73 1025.6
20260502063601 12 340 4.8 9.7 0.00 0.00 0.00 73 1025.5
20260502063501 12 341 4.8 9.7 0.00 0.00 0.00 73 1025.5
20260502063412 12 335 4.8 6.4 0.00 0.00 0.00 74 1025.6
20260502063401 12 340 4.8 9.7 0.00 0.00 0.00 73 1025.5
20260502063301 12 340 4.8 6.4 0.00 0.00 0.00 73 1025.5
20260502063201 12 335 4.8 6.4 0.00 0.00 0.00 74 1025.5
20260502063100 12 335 4.8 6.4 0.00 0.00 0.00 74 1025.5
20260502063000 12 335 4.8 6.4 0.00 0.00 0.00 74 1025.6
20260502062902 12 335 4.8 6.4 0.00 0.00 0.00 74 1025.6
20260502062811 11 335 4.8 6.4 0.00 0.00 0.00 75 1025.6
20260502062802 12 335 3.2 6.4 0.00 0.00 0.00 74 1025.5
20260502062701 12 333 3.2 6.4 0.00 0.00 0.00 75 1025.6
20260502062601 12 334 3.2 6.4 0.00 0.00 0.00 75 1025.6
20260502062501 11 334 3.2 6.4 0.00 0.00 0.00 76 1025.6
20260502062402 11 335 4.8 6.4 0.00 0.00 0.00 75 1025.5
20260502062400 11 335 4.8 6.4 0.00 0.00 0.00 75 1025.6
20260502062305 11 335 4.8 6.4 0.00 0.00 0.00 75 1025.6
20260502062201 11 336 4.8 6.4 0.00 0.00 0.00 75 1025.5
20260502062101 11 336 4.8 6.4 0.00 0.00 0.00 75 1025.6
20260502062001 11 333 4.8 6.4 0.00 0.00 0.00 75 1025.5
20260502061901 11 333 4.8 6.4 0.00 0.00 0.00 75 1025.5
20260502061801 11 335 4.8 6.4 0.00 0.00 0.00 75 1025.5
20260502061702 11 335 4.8 6.4 0.00 0.00 0.00 76 1025.6
20260502061602 11 333 4.8 6.4 0.00 0.00 0.00 76 1025.5
20260502061501 11 333 4.8 6.4 0.00 0.00 0.00 76 1025.5
20260502061400 11 334 4.8 6.4 0.00 0.00 0.00 76 1025.4
20260502061300 11 334 4.8 6.4 0.00 0.00 0.00 76 1025.5
20260502061202 11 334 4.8 6.4 0.00 0.00 0.00 76 1025.5
20260502061200 11 336 4.8 6.4 0.00 0.00 0.00 76 1025.6
20260502061102 11 336 4.8 6.4 0.00 0.00 0.00 76 1025.6
20260502061002 11 337 3.2 6.4 0.00 0.00 0.00 76 1025.5
20260502060902 11 337 3.2 6.4 0.00 0.00 0.00 76 1025.5
20260502060859 11 334 3.2 6.4 0.00 0.00 0.00 76 1025.6
20260502060800 11 334 3.2 6.4 0.00 0.00 0.00 76 1025.6
20260502060709 11 336 3.2 4.8 0.00 0.00 0.00 76 1025.6
20260502060701 11 334 3.2 6.4 0.00 0.00 0.00 76 1025.6
20260502060601 11 337 3.2 6.4 0.00 0.00 0.00 77 1025.5
20260502060501 11 338 3.2 4.8 0.00 0.00 0.00 76 1025.6
20260502060401 11 336 3.2 4.8 0.00 0.00 0.00 76 1025.6
20260502060301 11 336 3.2 4.8 0.00 0.00 0.00 76 1025.6
20260502060200 11 336 3.2 4.8 0.00 0.00 0.00 76 1025.6
20260502060101 11 336 3.2 4.8 0.00 0.00 0.00 76 1025.6
20260502060001 11 339 3.2 4.8 0.00 0.00 0.00 76 1025.5
20260502055914 11 344 3.2 6.4 0.00 0.00 0.00 77 1025.6
20260502055901 11 339 3.2 4.8 0.00 0.00 0.00 76 1025.5